Time,TemperatureF,DewpointF,PressureIn,WindDirection,WindDirectionDegrees,WindSpeedMPH,WindSpeedGustMPH,Humidity,HourlyPrecipIn,Conditions,Clouds,dailyrainin,SoftwareType,DateUTC
2013-02-20 00:00:00,34.9,4.3,29.59,WNW,284,7.6,7.6,27,0.00,,,0.00,VWS V14.01,2013-02-20 05:00:00,
2013-02-20 00:01:00,34.9,4.3,29.59,NW,306,4.9,8.1,27,0.00,,,0.00,VWS V14.01,2013-02-20 05:01:00,
2013-02-20 00:06:00,34.9,4.3,29.59,WSW,245,6.3,7.6,27,0.00,,,0.00,VWS V14.01,2013-02-20 05:06:00,
2013-02-20 00:08:00,34.7,4.2,29.62,WNW,299,6.3,6.3,27,0.00,,,0.00,VWS V14.01,2013-02-20 05:08:00,
2013-02-20 00:11:00,34.7,2.5,29.62,West,271,10.5,10.5,25,0.00,,,0.00,VWS V14.01,2013-02-20 05:11:00,
2013-02-20 00:12:00,34.7,2.5,29.62,West,271,7.6,10.5,25,0.00,,,0.00,VWS V14.01,2013-02-20 05:12:00,
2013-02-20 00:13:00,34.7,2.5,29.62,WNW,293,8.1,8.1,25,0.00,,,0.00,VWS V14.01,2013-02-20 05:13:00,
2013-02-20 00:14:00,34.7,2.5,29.62,WNW,287,7.6,7.6,25,0.00,,,0.00,VWS V14.01,2013-02-20 05:14:00,
2013-02-20 00:17:00,34.7,2.5,29.62,WNW,286,3.6,7.6,25,0.00,,,0.00,VWS V14.01,2013-02-20 05:17:00,
2013-02-20 00:18:00,34.7,2.5,29.62,WSW,248,3.6,4.9,25,0.00,,,0.00,VWS V14.01,2013-02-20 05:18:00,
2013-02-20 00:19:00,34.5,2.3,29.62,West,268,3.6,5.8,25,0.00,,,0.00,VWS V14.01,2013-02-20 05:19:00,
2013-02-20 00:22:00,34.5,2.3,29.62,WSW,253,3.1,3.6,25,0.00,,,0.00,VWS V14.01,2013-02-20 05:22:00,
2013-02-20 00:23:00,34.5,2.3,29.62,West,264,7.6,7.6,25,0.00,,,0.00,VWS V14.01,2013-02-20 05:23:00,
2013-02-20 00:25:00,34.3,2.2,29.62,West,262,4.0,5.4,25,0.00,,,0.00,VWS V14.01,2013-02-20 05:25:00,
2013-02-20 00:27:00,34.3,2.2,29.62,WSW,250,7.6,8.1,25,0.00,,,0.00,VWS V14.01,2013-02-20 05:27:00,
2013-02-20 00:31:00,34.2,2.0,29.62,WSW,256,4.0,4.0,25,0.00,,,0.00,VWS V14.01,2013-02-20 05:31:00,
2013-02-20 00:32:00,34.2,2.0,29.62,West,272,5.4,5.4,25,0.00,,,0.00,VWS V14.01,2013-02-20 05:32:00,
2013-02-20 00:33:00,34.0,1.9,29.62,WSW,252,2.2,6.3,25,0.00,,,0.00,VWS V14.01,2013-02-20 05:33:00,
2013-02-20 00:38:00,33.8,1.7,29.62,West,266,3.1,7.6,25,0.00,,,0.00,VWS V14.01,2013-02-20 05:38:00,
2013-02-20 00:39:00,33.8,1.7,29.62,WSW,257,7.2,7.2,25,0.00,,,0.00,VWS V14.01,2013-02-20 05:39:00,
2013-02-20 00:42:00,33.8,1.7,29.62,SW,226,3.1,5.8,25,0.00,,,0.00,VWS V14.01,2013-02-20 05:42:00,
2013-02-20 00:43:00,33.8,1.7,29.62,West,266,5.4,5.4,25,0.00,,,0.00,VWS V14.01,2013-02-20 05:43:00,
2013-02-20 00:44:00,33.8,1.7,29.62,West,268,2.7,5.4,25,0.00,,,0.00,VWS V14.01,2013-02-20 05:44:00,
2013-02-20 00:46:00,33.6,1.6,29.62,West,259,5.8,6.3,25,0.00,,,0.00,VWS V14.01,2013-02-20 05:46:00,
2013-02-20 00:48:00,33.6,1.6,29.62,WNW,286,2.7,3.1,25,0.00,,,0.00,VWS V14.01,2013-02-20 05:48:00,
2013-02-20 00:49:00,33.6,1.6,29.62,WSW,249,3.1,4.0,25,0.00,,,0.00,VWS V14.01,2013-02-20 05:49:00,
2013-02-20 00:51:00,33.6,1.6,29.62,West,272,2.7,4.0,25,0.00,,,0.00,VWS V14.01,2013-02-20 05:51:00,
2013-02-20 00:53:00,33.4,1.4,29.62,West,279,4.0,5.4,25,0.00,,,0.00,VWS V14.01,2013-02-20 05:53:00,
2013-02-20 00:54:00,33.3,1.2,29.62,West,273,5.4,5.4,25,0.00,,,0.00,VWS V14.01,2013-02-20 05:54:00,
2013-02-20 00:55:00,33.3,1.2,29.62,West,267,5.4,5.4,25,0.00,,,0.00,VWS V14.01,2013-02-20 05:55:00,
2013-02-20 00:58:00,33.3,1.2,29.62,WNW,283,4.9,5.4,25,0.00,,,0.00,VWS V14.01,2013-02-20 05:58:00,
2013-02-20 00:59:00,33.1,1.1,29.62,SW,231,2.7,3.6,25,0.00,,,0.00,VWS V14.01,2013-02-20 05:59:00,
2013-02-20 01:04:00,32.9,0.9,29.62,West,279,3.6,5.4,25,0.00,,,0.00,VWS V14.01,2013-02-20 06:04:00,
2013-02-20 01:05:00,32.9,0.9,29.62,West,281,5.4,5.4,25,0.00,,,0.00,VWS V14.01,2013-02-20 06:05:00,
2013-02-20 01:09:00,32.7,0.8,29.65,WNW,284,3.6,6.3,25,0.00,,,0.00,VWS V14.01,2013-02-20 06:09:00,
2013-02-20 01:10:00,32.7,0.8,29.65,West,267,3.6,3.6,25,0.00,,,0.00,VWS V14.01,2013-02-20 06:10:00,
2013-02-20 01:11:00,32.7,0.8,29.65,WSW,241,3.1,5.8,25,0.00,,,0.00,VWS V14.01,2013-02-20 06:11:00,
2013-02-20 01:16:00,32.5,-1.1,29.65,West,264,4.9,8.1,23,0.00,,,0.00,VWS V14.01,2013-02-20 06:16:00,
2013-02-20 01:18:00,32.5,-1.1,29.65,West,281,6.3,6.7,23,0.00,,,0.00,VWS V14.01,2013-02-20 06:18:00,
2013-02-20 01:20:00,32.5,-1.1,29.65,West,279,5.4,7.6,23,0.00,,,0.00,VWS V14.01,2013-02-20 06:20:00,
2013-02-20 01:22:00,32.5,-1.1,29.65,WSW,256,5.8,10.1,23,0.00,,,0.00,VWS V14.01,2013-02-20 06:22:00,
2013-02-20 01:24:00,32.5,-1.1,29.65,WNW,302,3.1,8.1,23,0.00,,,0.00,VWS V14.01,2013-02-20 06:24:00,
2013-02-20 01:26:00,32.5,-1.1,29.65,WNW,291,5.8,8.3,23,0.00,,,0.00,VWS V14.01,2013-02-20 06:26:00,
2013-02-20 01:27:00,32.5,-1.1,29.65,WNW,292,4.9,6.3,23,0.00,,,0.00,VWS V14.01,2013-02-20 06:27:00,
2013-02-20 01:30:00,32.5,-1.1,29.65,WNW,297,6.7,6.7,23,0.00,,,0.00,VWS V14.01,2013-02-20 06:30:00,
2013-02-20 01:31:00,32.5,-1.1,29.65,NW,321,3.1,4.0,23,0.00,,,0.00,VWS V14.01,2013-02-20 06:31:00,
2013-02-20 01:34:00,32.4,-1.3,29.65,WNW,294,8.1,8.1,23,0.00,,,0.00,VWS V14.01,2013-02-20 06:34:00,
2013-02-20 01:36:00,32.4,-1.3,29.65,NW,308,8.1,9.6,23,0.00,,,0.00,VWS V14.01,2013-02-20 06:36:00,
2013-02-20 01:38:00,32.4,-1.3,29.65,West,274,5.4,8.3,23,0.00,,,0.00,VWS V14.01,2013-02-20 06:38:00,
2013-02-20 01:39:00,32.4,-1.3,29.65,West,272,11.0,11.0,23,0.00,,,0.00,VWS V14.01,2013-02-20 06:39:00,
2013-02-20 01:41:00,32.4,-1.3,29.65,WNW,291,5.4,10.1,23,0.00,,,0.00,VWS V14.01,2013-02-20 06:41:00,
2013-02-20 01:43:00,32.4,-1.3,29.65,WSW,237,4.0,8.7,23,0.00,,,0.00,VWS V14.01,2013-02-20 06:43:00,
2013-02-20 01:45:00,32.4,-1.3,29.65,WSW,257,3.6,4.9,23,0.00,,,0.00,VWS V14.01,2013-02-20 06:45:00,
2013-02-20 01:46:00,32.2,-1.4,29.65,West,261,4.0,5.8,23,0.00,,,0.00,VWS V14.01,2013-02-20 06:46:00,
2013-02-20 01:49:00,32.2,-1.4,29.65,SW,216,8.1,10.1,23,0.00,,,0.00,VWS V14.01,2013-02-20 06:49:00,
2013-02-20 01:51:00,32.2,-1.4,29.65,WNW,289,4.0,5.8,23,0.00,,,0.00,VWS V14.01,2013-02-20 06:51:00,
2013-02-20 01:52:00,32.2,-1.4,29.65,WNW,283,3.1,4.0,23,0.00,,,0.00,VWS V14.01,2013-02-20 06:52:00,
2013-02-20 01:54:00,32.2,-1.4,29.65,West,270,4.9,6.7,23,0.00,,,0.00,VWS V14.01,2013-02-20 06:54:00,
2013-02-20 01:56:00,32.2,-1.4,29.65,WSW,258,5.4,8.3,23,0.00,,,0.00,VWS V14.01,2013-02-20 06:56:00,
2013-02-20 01:59:00,32.2,-1.4,29.65,WSW,251,8.1,10.1,23,0.00,,,0.00,VWS V14.01,2013-02-20 06:59:00,
2013-02-20 02:01:00,32.2,-1.4,29.65,West,274,8.7,8.7,23,0.00,,,0.00,VWS V14.01,2013-02-20 07:01:00,
2013-02-20 02:05:00,32.2,-1.4,29.65,WNW,297,4.9,10.5,23,0.00,,,0.00,VWS V14.01,2013-02-20 07:05:00,
2013-02-20 02:06:00,32.2,-1.4,29.65,West,281,4.9,4.9,23,0.00,,,0.00,VWS V14.01,2013-02-20 07:06:00,
2013-02-20 02:07:00,32.0,-1.6,29.65,WSW,244,5.8,5.8,23,0.00,,,0.00,VWS V14.01,2013-02-20 07:07:00,
2013-02-20 02:09:00,32.0,-1.6,29.65,WSW,252,4.0,8.7,23,0.00,,,0.00,VWS V14.01,2013-02-20 07:09:00,
2013-02-20 02:10:00,32.0,-1.6,29.65,West,274,3.6,8.1,23,0.00,,,0.00,VWS V14.01,2013-02-20 07:10:00,
2013-02-20 02:12:00,31.8,-1.8,29.65,NW,306,4.0,8.7,23,0.00,,,0.00,VWS V14.01,2013-02-20 07:12:00,
2013-02-20 02:13:00,31.8,-1.8,29.65,NW,316,3.1,6.3,23,0.00,,,0.00,VWS V14.01,2013-02-20 07:13:00,
2013-02-20 02:15:00,31.8,-1.8,29.65,SW,234,5.4,5.4,23,0.00,,,0.00,VWS V14.01,2013-02-20 07:15:00,
2013-02-20 02:16:00,31.8,-1.8,29.65,SSW,213,6.3,8.1,23,0.00,,,0.00,VWS V14.01,2013-02-20 07:16:00,
2013-02-20 02:17:00,31.8,-1.8,29.65,West,270,5.4,6.3,23,0.00,,,0.00,VWS V14.01,2013-02-20 07:17:00,
2013-02-20 02:19:00,31.6,-1.9,29.65,WNW,282,8.1,8.3,23,0.00,,,0.00,VWS V14.01,2013-02-20 07:19:00,
2013-02-20 02:21:00,31.6,-1.9,29.65,West,274,4.9,4.9,23,0.00,,,0.00,VWS V14.01,2013-02-20 07:21:00,
2013-02-20 02:23:00,31.6,-1.9,29.65,WNW,303,5.8,5.8,23,0.00,,,0.00,VWS V14.01,2013-02-20 07:23:00,
2013-02-20 02:26:00,31.6,-1.9,29.65,North,4,8.3,8.3,23,0.00,,,0.00,VWS V14.01,2013-02-20 07:26:00,
2013-02-20 02:28:00,31.5,-5.0,29.65,West,280,5.4,6.3,20,0.00,,,0.00,VWS V14.01,2013-02-20 07:28:00,
2013-02-20 02:29:00,31.5,-5.0,29.65,NW,324,6.3,6.3,20,0.00,,,0.00,VWS V14.01,2013-02-20 07:29:00,
2013-02-20 02:31:00,31.5,-5.0,29.65,WNW,282,5.8,5.8,20,0.00,,,0.00,VWS V14.01,2013-02-20 07:31:00,
2013-02-20 02:32:00,31.3,-5.1,29.65,WSW,253,5.4,9.6,20,0.00,,,0.00,VWS V14.01,2013-02-20 07:32:00,
2013-02-20 02:34:00,31.3,-5.1,29.65,SW,236,4.0,6.3,20,0.00,,,0.00,VWS V14.01,2013-02-20 07:34:00,
2013-02-20 02:35:00,31.3,-5.1,29.65,WNW,287,4.0,6.3,20,0.00,,,0.00,VWS V14.01,2013-02-20 07:35:00,
2013-02-20 02:36:00,31.1,-5.3,29.68,NW,308,7.6,10.1,20,0.00,,,0.00,VWS V14.01,2013-02-20 07:36:00,
2013-02-20 02:37:00,31.1,-5.3,29.68,West,265,7.6,10.1,20,0.00,,,0.00,VWS V14.01,2013-02-20 07:37:00,
2013-02-20 02:39:00,31.1,-5.3,29.68,WNW,287,6.3,7.6,20,0.00,,,0.00,VWS V14.01,2013-02-20 07:39:00,
2013-02-20 02:40:00,31.1,-5.3,29.68,WNW,302,2.2,7.6,20,0.00,,,0.00,VWS V14.01,2013-02-20 07:40:00,
2013-02-20 02:43:00,31.1,-5.3,29.68,WSW,246,10.1,10.1,20,0.00,,,0.00,VWS V14.01,2013-02-20 07:43:00,
2013-02-20 02:45:00,30.9,-5.4,29.68,West,277,3.6,5.4,20,0.00,,,0.00,VWS V14.01,2013-02-20 07:45:00,
2013-02-20 02:47:00,30.7,-5.6,29.68,WSW,241,2.7,8.7,20,0.00,,,0.00,VWS V14.01,2013-02-20 07:47:00,
2013-02-20 02:49:00,30.7,-5.6,29.68,WNW,290,4.5,8.3,20,0.00,,,0.00,VWS V14.01,2013-02-20 07:49:00,
2013-02-20 02:50:00,30.7,-5.6,29.68,WSW,253,8.7,11.4,20,0.00,,,0.00,VWS V14.01,2013-02-20 07:50:00,
2013-02-20 02:52:00,30.7,-5.6,29.68,WSW,237,6.3,9.6,20,0.00,,,0.00,VWS V14.01,2013-02-20 07:52:00,
2013-02-20 02:54:00,30.7,-5.6,29.68,SW,236,4.0,7.6,20,0.00,,,0.00,VWS V14.01,2013-02-20 07:54:00,
2013-02-20 02:56:00,30.6,-5.7,29.68,WSW,244,4.0,5.4,20,0.00,,,0.00,VWS V14.01,2013-02-20 07:56:00,
2013-02-20 02:57:00,30.6,-5.7,29.68,NW,324,0.0,5.4,20,0.00,,,0.00,VWS V14.01,2013-02-20 07:57:00,
2013-02-20 02:59:00,30.6,-5.7,29.68,WSW,242,8.3,10.5,20,0.00,,,0.00,VWS V14.01,2013-02-20 07:59:00,
2013-02-20 03:00:00,30.4,-5.9,29.68,WNW,297,5.4,7.6,20,0.00,,,0.00,VWS V14.01,2013-02-20 08:00:00,
2013-02-20 03:05:00,30.4,-5.9,29.68,West,270,5.8,7.2,20,0.00,,,0.00,VWS V14.01,2013-02-20 08:05:00,
2013-02-20 03:06:00,30.4,-5.9,29.68,West,259,5.8,10.5,20,0.00,,,0.00,VWS V14.01,2013-02-20 08:06:00,
2013-02-20 03:10:00,30.2,-6.0,29.65,West,271,5.8,8.3,20,0.00,,,0.00,VWS V14.01,2013-02-20 08:10:00,
2013-02-20 03:11:00,30.2,-6.0,29.65,WSW,252,4.9,8.3,20,0.00,,,0.00,VWS V14.01,2013-02-20 08:11:00,
2013-02-20 03:12:00,30.2,-6.0,29.65,West,270,8.3,8.3,20,0.00,,,0.00,VWS V14.01,2013-02-20 08:12:00,
2013-02-20 03:16:00,30.2,-6.0,29.65,West,266,8.3,8.3,20,0.00,,,0.00,VWS V14.01,2013-02-20 08:16:00,
2013-02-20 03:17:00,30.0,-6.2,29.65,West,276,5.4,8.3,20,0.00,,,0.00,VWS V14.01,2013-02-20 08:17:00,
2013-02-20 03:19:00,30.0,-6.2,29.65,WNW,283,8.1,8.1,20,0.00,,,0.00,VWS V14.01,2013-02-20 08:19:00,
2013-02-20 03:21:00,30.0,-6.2,29.65,WNW,298,4.0,4.0,20,0.00,,,0.00,VWS V14.01,2013-02-20 08:21:00,
2013-02-20 03:25:00,29.8,-6.3,29.65,WNW,285,3.6,4.0,20,0.00,,,0.00,VWS V14.01,2013-02-20 08:25:00,
2013-02-20 03:27:00,29.8,-6.3,29.65,NNW,346,2.7,2.7,20,0.00,,,0.00,VWS V14.01,2013-02-20 08:27:00,
2013-02-20 03:30:00,29.7,-6.5,29.65,WSW,240,2.2,3.6,20,0.00,,,0.00,VWS V14.01,2013-02-20 08:30:00,
2013-02-20 03:31:00,29.7,-6.5,29.65,WSW,240,2.2,3.6,20,0.00,,,0.00,VWS V14.01,2013-02-20 08:31:00,
2013-02-20 03:34:00,29.5,-6.6,29.65,West,277,0.0,4.0,20,0.00,,,0.00,VWS V14.01,2013-02-20 08:34:00,
2013-02-20 03:36:00,29.5,-6.6,29.65,West,273,5.8,5.8,20,0.00,,,0.00,VWS V14.01,2013-02-20 08:36:00,
2013-02-20 03:37:00,29.5,-6.6,29.65,West,281,0.0,0.0,20,0.00,,,0.00,VWS V14.01,2013-02-20 08:37:00,
2013-02-20 03:40:00,29.5,-6.6,29.65,West,274,0.0,4.0,20,0.00,,,0.00,VWS V14.01,2013-02-20 08:40:00,
2013-02-20 03:41:00,29.5,-6.6,29.65,WNW,286,5.4,5.4,20,0.00,,,0.00,VWS V14.01,2013-02-20 08:41:00,
2013-02-20 03:43:00,29.3,-6.8,29.65,WNW,286,2.7,4.0,20,0.00,,,0.00,VWS V14.01,2013-02-20 08:43:00,
2013-02-20 03:45:00,29.3,-6.8,29.65,West,271,3.6,3.6,20,0.00,,,0.00,VWS V14.01,2013-02-20 08:45:00,
2013-02-20 03:47:00,29.3,-6.8,29.65,WNW,286,5.8,5.8,20,0.00,,,0.00,VWS V14.01,2013-02-20 08:47:00,
2013-02-20 03:48:00,29.3,-6.8,29.65,WNW,284,4.0,5.8,20,0.00,,,0.00,VWS V14.01,2013-02-20 08:48:00,
2013-02-20 03:51:00,29.3,-6.8,29.65,SW,230,2.7,3.6,20,0.00,,,0.00,VWS V14.01,2013-02-20 08:51:00,
2013-02-20 03:54:00,29.1,-6.9,29.68,SW,228,2.7,3.1,20,0.00,,,0.00,VWS V14.01,2013-02-20 08:54:00,
2013-02-20 03:55:00,29.1,-6.9,29.68,WSW,255,0.0,0.0,20,0.00,,,0.00,VWS V14.01,2013-02-20 08:55:00,
2013-02-20 03:57:00,29.1,-6.9,29.68,West,270,4.0,4.5,20,0.00,,,0.00,VWS V14.01,2013-02-20 08:57:00,
2013-02-20 03:59:00,28.9,-7.1,29.68,WNW,291,0.0,3.1,20,0.00,,,0.00,VWS V14.01,2013-02-20 08:59:00,
2013-02-20 04:02:00,28.9,-7.1,29.68,WSW,253,2.2,3.1,20,0.00,,,0.00,VWS V14.01,2013-02-20 09:02:00,
2013-02-20 04:03:00,28.9,-7.1,29.68,WSW,254,2.7,3.1,20,0.00,,,0.00,VWS V14.01,2013-02-20 09:03:00,
2013-02-20 04:04:00,28.9,-7.1,29.68,West,264,4.0,4.0,20,0.00,,,0.00,VWS V14.01,2013-02-20 09:04:00,
2013-02-20 04:05:00,28.9,-7.1,29.68,WSW,254,5.8,5.8,20,0.00,,,0.00,VWS V14.01,2013-02-20 09:05:00,
2013-02-20 04:08:00,29.1,-6.9,29.65,West,271,3.6,3.6,20,0.00,,,0.00,VWS V14.01,2013-02-20 09:08:00,
2013-02-20 04:10:00,29.1,-6.9,29.65,WNW,299,3.6,3.6,20,0.00,,,0.00,VWS V14.01,2013-02-20 09:10:00,
2013-02-20 04:11:00,29.1,-6.9,29.65,West,265,4.9,4.9,20,0.00,,,0.00,VWS V14.01,2013-02-20 09:11:00,
2013-02-20 04:13:00,29.1,-6.9,29.65,West,261,0.0,0.0,20,0.00,,,0.00,VWS V14.01,2013-02-20 09:13:00,
2013-02-20 04:15:00,29.3,-6.8,29.65,WSW,246,3.1,4.0,20,0.00,,,0.00,VWS V14.01,2013-02-20 09:15:00,
2013-02-20 04:16:00,29.3,-6.8,29.65,West,267,2.7,3.6,20,0.00,,,0.00,VWS V14.01,2013-02-20 09:16:00,
2013-02-20 04:19:00,29.3,-6.8,29.65,West,265,0.0,2.7,20,0.00,,,0.00,VWS V14.01,2013-02-20 09:19:00,
2013-02-20 04:20:00,29.5,-6.6,29.65,West,268,2.2,2.7,20,0.00,,,0.00,VWS V14.01,2013-02-20 09:20:00,
2013-02-20 04:21:00,29.5,-6.6,29.68,WNW,289,2.7,3.6,20,0.00,,,0.00,VWS V14.01,2013-02-20 09:21:00,
2013-02-20 04:23:00,29.5,-6.6,29.68,WSW,248,2.7,2.7,20,0.00,,,0.00,VWS V14.01,2013-02-20 09:23:00,
2013-02-20 04:26:00,29.5,-6.6,29.68,SW,232,3.6,4.0,20,0.00,,,0.00,VWS V14.01,2013-02-20 09:26:00,
2013-02-20 04:27:00,29.5,-6.6,29.68,West,265,5.4,5.8,20,0.00,,,0.00,VWS V14.01,2013-02-20 09:27:00,
2013-02-20 04:30:00,29.7,-6.5,29.68,WSW,258,2.7,4.0,20,0.00,,,0.00,VWS V14.01,2013-02-20 09:30:00,
2013-02-20 04:31:00,29.7,-6.5,29.68,WSW,258,6.3,9.6,20,0.00,,,0.00,VWS V14.01,2013-02-20 09:31:00,
2013-02-20 04:33:00,29.7,-6.5,29.68,NW,318,7.2,7.2,20,0.00,,,0.00,VWS V14.01,2013-02-20 09:33:00,
2013-02-20 04:35:00,29.8,-6.3,29.68,SSW,203,3.6,6.3,20,0.00,,,0.00,VWS V14.01,2013-02-20 09:35:00,
2013-02-20 04:36:00,29.8,-6.3,29.68,WSW,248,5.4,5.4,20,0.00,,,0.00,VWS V14.01,2013-02-20 09:36:00,
2013-02-20 04:37:00,29.8,-6.3,29.68,West,265,7.6,9.6,20,0.00,,,0.00,VWS V14.01,2013-02-20 09:37:00,
2013-02-20 04:40:00,30.0,-6.2,29.68,WSW,254,4.0,8.3,20,0.00,,,0.00,VWS V14.01,2013-02-20 09:40:00,
2013-02-20 04:41:00,30.0,-6.2,29.68,WSW,254,3.6,5.4,20,0.00,,,0.00,VWS V14.01,2013-02-20 09:41:00,
2013-02-20 04:42:00,30.0,-6.2,29.68,WSW,254,5.8,8.1,20,0.00,,,0.00,VWS V14.01,2013-02-20 09:42:00,
2013-02-20 04:47:00,29.8,-6.3,29.68,WSW,254,5.4,8.3,20,0.00,,,0.00,VWS V14.01,2013-02-20 09:47:00,
2013-02-20 04:48:00,29.8,-6.3,29.68,WSW,254,4.9,12.3,20,0.00,,,0.00,VWS V14.01,2013-02-20 09:48:00,
2013-02-20 04:49:00,29.8,-6.3,29.68,WSW,254,5.8,5.8,20,0.00,,,0.00,VWS V14.01,2013-02-20 09:49:00,
2013-02-20 04:53:00,29.7,-6.5,29.68,WSW,254,10.1,10.1,20,0.00,,,0.00,VWS V14.01,2013-02-20 09:53:00,
2013-02-20 04:54:00,29.7,-6.5,29.68,WSW,254,7.6,8.7,20,0.00,,,0.00,VWS V14.01,2013-02-20 09:54:00,
2013-02-20 04:55:00,29.7,-6.5,29.68,WSW,254,4.9,11.0,20,0.00,,,0.00,VWS V14.01,2013-02-20 09:55:00,
2013-02-20 04:59:00,29.7,-6.5,29.68,WSW,254,4.9,4.9,20,0.00,,,0.00,VWS V14.01,2013-02-20 09:59:00,
2013-02-20 05:00:00,29.7,-6.5,29.68,WSW,254,5.4,5.4,20,0.00,,,0.00,VWS V14.01,2013-02-20 10:00:00,
2013-02-20 05:01:00,29.7,-6.5,29.68,WSW,254,4.0,8.3,20,0.00,,,0.00,VWS V14.01,2013-02-20 10:01:00,
2013-02-20 05:04:00,29.7,-6.5,29.68,WSW,254,5.4,5.4,20,0.00,,,0.00,VWS V14.01,2013-02-20 10:04:00,
2013-02-20 05:05:00,29.7,-6.5,29.68,WSW,254,5.8,5.8,20,0.00,,,0.00,VWS V14.01,2013-02-20 10:05:00,
2013-02-20 05:06:00,29.5,-6.6,29.68,WSW,254,7.2,7.2,20,0.00,,,0.00,VWS V14.01,2013-02-20 10:06:00,
2013-02-20 05:07:00,29.5,-6.6,29.68,WSW,254,3.1,5.8,20,0.00,,,0.00,VWS V14.01,2013-02-20 10:07:00,
2013-02-20 05:09:00,29.5,-6.6,29.68,WSW,254,7.6,7.6,20,0.00,,,0.00,VWS V14.01,2013-02-20 10:09:00,
2013-02-20 05:11:00,29.5,-6.6,29.68,WSW,254,7.6,7.6,20,0.00,,,0.00,VWS V14.01,2013-02-20 10:11:00,
2013-02-20 05:13:00,29.3,-6.8,29.68,WSW,254,5.4,8.1,20,0.00,,,0.00,VWS V14.01,2013-02-20 10:13:00,
2013-02-20 05:14:00,29.5,-6.6,29.68,WSW,254,5.4,5.4,20,0.00,,,0.00,VWS V14.01,2013-02-20 10:14:00,
2013-02-20 05:15:00,29.3,-6.8,29.68,WSW,254,8.1,15.0,20,0.00,,,0.00,VWS V14.01,2013-02-20 10:15:00,
2013-02-20 05:17:00,29.3,-6.8,29.68,WSW,254,4.9,13.2,20,0.00,,,0.00,VWS V14.01,2013-02-20 10:17:00,
2013-02-20 05:19:00,29.3,-6.8,29.68,WSW,254,9.6,9.6,20,0.00,,,0.00,VWS V14.01,2013-02-20 10:19:00,
2013-02-20 05:20:00,29.3,-6.8,29.68,WSW,254,8.7,8.7,20,0.00,,,0.00,VWS V14.01,2013-02-20 10:20:00,
2013-02-20 05:22:00,29.3,-6.8,29.68,WSW,254,6.7,6.7,20,0.00,,,0.00,VWS V14.01,2013-02-20 10:22:00,
2013-02-20 05:25:00,29.1,-6.9,29.68,WSW,254,10.1,11.4,20,0.00,,,0.00,VWS V14.01,2013-02-20 10:25:00,
2013-02-20 05:27:00,29.1,-6.9,29.68,WSW,254,6.3,11.0,20,0.00,,,0.00,VWS V14.01,2013-02-20 10:27:00,
2013-02-20 05:29:00,28.9,-7.1,29.68,WSW,254,8.3,8.3,20,0.00,,,0.00,VWS V14.01,2013-02-20 10:29:00,
2013-02-20 05:32:00,28.9,-7.1,29.68,WSW,254,6.3,12.3,20,0.00,,,0.00,VWS V14.01,2013-02-20 10:32:00,
2013-02-20 05:33:00,28.9,-7.1,29.68,WSW,254,7.6,7.6,20,0.00,,,0.00,VWS V14.01,2013-02-20 10:33:00,
2013-02-20 05:34:00,28.8,-7.2,29.68,WSW,254,2.7,11.0,20,0.00,,,0.00,VWS V14.01,2013-02-20 10:34:00,
2013-02-20 05:37:00,28.8,-7.2,29.68,WSW,254,5.4,8.1,20,0.00,,,0.00,VWS V14.01,2013-02-20 10:37:00,
2013-02-20 05:38:00,28.6,-7.4,29.68,WSW,254,5.8,12.8,20,0.00,,,0.00,VWS V14.01,2013-02-20 10:38:00,
2013-02-20 05:39:00,28.6,-7.4,29.68,WSW,254,6.7,12.8,20,0.00,,,0.00,VWS V14.01,2013-02-20 10:39:00,
2013-02-20 05:41:00,28.6,-7.4,29.68,WSW,254,3.1,4.0,20,0.00,,,0.00,VWS V14.01,2013-02-20 10:41:00,
2013-02-20 05:44:00,28.6,-7.4,29.68,WSW,254,4.9,7.6,20,0.00,,,0.00,VWS V14.01,2013-02-20 10:44:00,
2013-02-20 05:45:00,28.4,-6.5,29.68,WSW,254,5.4,5.8,21,0.00,,,0.00,VWS V14.01,2013-02-20 10:45:00,
2013-02-20 05:47:00,28.4,-6.5,29.68,WSW,254,3.1,6.3,21,0.00,,,0.00,VWS V14.01,2013-02-20 10:47:00,
2013-02-20 05:50:00,28.2,-6.7,29.68,WSW,254,4.9,11.0,21,0.00,,,0.00,VWS V14.01,2013-02-20 10:50:00,
2013-02-20 05:52:00,28.2,-6.7,29.71,WSW,254,6.3,6.3,21,0.00,,,0.00,VWS V14.01,2013-02-20 10:52:00,
2013-02-20 05:55:00,28.0,-6.8,29.71,WSW,254,9.2,9.2,21,0.00,,,0.00,VWS V14.01,2013-02-20 10:55:00,
2013-02-20 05:57:00,28.0,-6.8,29.71,WSW,254,7.6,10.5,21,0.00,,,0.00,VWS V14.01,2013-02-20 10:57:00,
2013-02-20 05:59:00,28.0,-6.8,29.71,WSW,254,5.8,5.8,21,0.00,,,0.00,VWS V14.01,2013-02-20 10:59:00,
2013-02-20 06:00:00,28.0,-6.8,29.71,WSW,254,5.8,8.3,21,0.00,,,0.00,VWS V14.01,2013-02-20 11:00:00,
2013-02-20 06:03:00,28.0,-6.8,29.71,WSW,254,5.8,10.1,21,0.00,,,0.00,VWS V14.01,2013-02-20 11:03:00,
2013-02-20 06:05:00,27.9,-7.0,29.71,WSW,254,7.6,8.7,21,0.00,,,0.00,VWS V14.01,2013-02-20 11:05:00,
2013-02-20 06:06:00,27.9,-7.0,29.71,WSW,254,7.6,7.6,21,0.00,,,0.00,VWS V14.01,2013-02-20 11:06:00,
2013-02-20 06:07:00,27.9,-7.0,29.71,WSW,254,5.4,7.6,21,0.00,,,0.00,VWS V14.01,2013-02-20 11:07:00,
2013-02-20 06:08:00,27.9,-7.0,29.71,WSW,254,2.7,2.7,21,0.00,,,0.00,VWS V14.01,2013-02-20 11:08:00,
2013-02-20 06:12:00,27.9,-7.0,29.71,WSW,254,8.1,8.1,21,0.00,,,0.00,VWS V14.01,2013-02-20 11:12:00,
2013-02-20 06:14:00,27.9,-7.0,29.71,WSW,254,5.4,7.6,21,0.00,,,0.00,VWS V14.01,2013-02-20 11:14:00,
2013-02-20 06:18:00,27.9,-7.0,29.71,WSW,254,10.1,10.1,21,0.00,,,0.00,VWS V14.01,2013-02-20 11:18:00,
2013-02-20 06:20:00,27.9,-7.0,29.71,WSW,254,10.5,12.8,21,0.00,,,0.00,VWS V14.01,2013-02-20 11:20:00,
2013-02-20 06:21:00,27.9,-10.1,29.71,WSW,254,6.3,6.3,18,0.00,,,0.00,VWS V14.01,2013-02-20 11:21:00,
2013-02-20 06:23:00,27.9,-7.0,29.71,WSW,254,8.7,8.7,21,0.00,,,0.00,VWS V14.01,2013-02-20 11:23:00,
2013-02-20 06:25:00,27.9,-7.0,29.71,WSW,254,6.3,7.6,21,0.00,,,0.00,VWS V14.01,2013-02-20 11:25:00,
2013-02-20 06:28:00,27.9,-7.0,29.71,WSW,254,5.8,7.6,21,0.00,,,0.00,VWS V14.01,2013-02-20 11:28:00,
2013-02-20 06:29:00,27.9,-7.0,29.71,WSW,254,8.7,8.7,21,0.00,,,0.00,VWS V14.01,2013-02-20 11:29:00,
2013-02-20 06:30:00,27.7,-7.2,29.71,WSW,254,12.3,12.3,21,0.00,,,0.00,VWS V14.01,2013-02-20 11:30:00,
2013-02-20 06:35:00,27.7,-7.2,29.71,WSW,254,8.7,12.8,21,0.00,,,0.00,VWS V14.01,2013-02-20 11:35:00,
2013-02-20 06:36:00,27.7,-7.2,29.71,WSW,254,8.3,12.3,21,0.00,,,0.00,VWS V14.01,2013-02-20 11:36:00,
2013-02-20 06:37:00,27.7,-7.2,29.71,WSW,254,13.2,13.2,21,0.00,,,0.00,VWS V14.01,2013-02-20 11:37:00,
2013-02-20 06:40:00,27.5,-7.3,29.71,WSW,254,5.8,8.1,21,0.00,,,0.00,VWS V14.01,2013-02-20 11:40:00,
2013-02-20 06:41:00,27.5,-7.3,29.71,WSW,254,11.0,11.0,21,0.00,,,0.00,VWS V14.01,2013-02-20 11:41:00,
2013-02-20 06:42:00,27.5,-7.3,29.71,WSW,254,7.6,11.0,21,0.00,,,0.00,VWS V14.01,2013-02-20 11:42:00,
2013-02-20 06:43:00,27.5,-7.3,29.71,WSW,254,8.7,9.6,21,0.00,,,0.00,VWS V14.01,2013-02-20 11:43:00,
2013-02-20 06:45:00,27.5,-7.3,29.71,WSW,254,13.2,13.2,21,0.00,,,0.00,VWS V14.01,2013-02-20 11:45:00,
2013-02-20 06:46:00,27.5,-7.3,29.71,WSW,254,7.2,7.2,21,0.00,,,0.00,VWS V14.01,2013-02-20 11:46:00,
2013-02-20 06:48:00,27.5,-7.3,29.71,WSW,254,9.6,9.6,21,0.00,,,0.00,VWS V14.01,2013-02-20 11:48:00,
2013-02-20 06:49:00,27.5,-7.3,29.71,WSW,254,8.3,9.6,21,0.00,,,0.00,VWS V14.01,2013-02-20 11:49:00,
2013-02-20 06:50:00,27.3,-7.4,29.71,WSW,254,10.5,10.5,21,0.00,,,0.00,VWS V14.01,2013-02-20 11:50:00,
2013-02-20 06:52:00,27.3,-7.4,29.74,WSW,254,6.3,6.3,21,0.00,,,0.00,VWS V14.01,2013-02-20 11:52:00,
2013-02-20 06:54:00,27.3,-7.4,29.74,WSW,254,3.6,5.8,21,0.00,,,0.00,VWS V14.01,2013-02-20 11:54:00,
2013-02-20 06:56:00,27.3,-7.4,29.74,WSW,254,7.2,8.3,21,0.00,,,0.00,VWS V14.01,2013-02-20 11:56:00,
2013-02-20 06:57:00,27.3,-7.4,29.74,WSW,254,7.6,7.6,21,0.00,,,0.00,VWS V14.01,2013-02-20 11:57:00,
2013-02-20 06:58:00,27.3,-7.4,29.74,WSW,254,6.3,6.3,21,0.00,,,0.00,VWS V14.01,2013-02-20 11:58:00,
2013-02-20 07:00:00,27.3,-7.4,29.74,WSW,254,6.3,6.3,21,0.00,,,0.00,VWS V14.01,2013-02-20 12:00:00,
2013-02-20 07:01:00,27.3,-7.4,29.74,WSW,254,2.7,4.9,21,0.00,,,0.00,VWS V14.01,2013-02-20 12:01:00,
2013-02-20 07:03:00,27.3,-7.4,29.74,WSW,254,4.0,8.7,21,0.00,,,0.00,VWS V14.01,2013-02-20 12:03:00,
2013-02-20 07:04:00,27.3,-7.4,29.74,WSW,254,5.4,5.4,21,0.00,,,0.00,VWS V14.01,2013-02-20 12:04:00,
2013-02-20 07:06:00,27.3,-7.4,29.74,WSW,254,3.1,6.3,21,0.00,,,0.00,VWS V14.01,2013-02-20 12:06:00,
2013-02-20 07:07:00,27.3,-7.4,29.74,WSW,254,6.3,10.1,21,0.00,,,0.00,VWS V14.01,2013-02-20 12:07:00,
2013-02-20 07:09:00,27.3,-7.4,29.74,WSW,254,4.5,6.3,21,0.00,,,0.00,VWS V14.01,2013-02-20 12:09:00,
2013-02-20 07:12:00,27.3,-7.4,29.74,WSW,254,3.6,8.1,21,0.00,,,0.00,VWS V14.01,2013-02-20 12:12:00,
2013-02-20 07:14:00,27.3,-7.4,29.74,WSW,254,5.8,5.8,21,0.00,,,0.00,VWS V14.01,2013-02-20 12:14:00,
2013-02-20 07:15:00,27.3,-7.4,29.74,WSW,254,3.6,5.8,21,0.00,,,0.00,VWS V14.01,2013-02-20 12:15:00,
2013-02-20 07:18:00,27.3,-7.4,29.74,WSW,254,2.7,4.5,21,0.00,,,0.00,VWS V14.01,2013-02-20 12:18:00,
2013-02-20 07:19:00,27.3,-7.4,29.74,WSW,254,2.2,3.6,21,0.00,,,0.00,VWS V14.01,2013-02-20 12:19:00,
2013-02-20 07:20:00,27.3,-7.4,29.74,WSW,254,3.1,3.6,21,0.00,,,0.00,VWS V14.01,2013-02-20 12:20:00,
2013-02-20 07:25:00,27.3,-7.4,29.74,WSW,254,4.9,10.1,21,0.00,,,0.00,VWS V14.01,2013-02-20 12:25:00,
2013-02-20 07:26:00,27.3,-7.4,29.74,WSW,254,6.3,6.3,21,0.00,,,0.00,VWS V14.01,2013-02-20 12:26:00,
2013-02-20 07:27:00,27.1,-7.6,29.74,WSW,254,5.8,5.8,21,0.00,,,0.00,VWS V14.01,2013-02-20 12:27:00,
2013-02-20 07:30:00,27.1,-7.6,29.74,WSW,254,7.6,8.3,21,0.00,,,0.00,VWS V14.01,2013-02-20 12:30:00,
2013-02-20 07:31:00,27.1,-7.6,29.74,WSW,254,3.6,5.8,21,0.00,,,0.00,VWS V14.01,2013-02-20 12:31:00,
2013-02-20 07:33:00,27.1,-7.6,29.74,WSW,254,4.0,6.3,21,0.00,,,0.00,VWS V14.01,2013-02-20 12:33:00,
2013-02-20 07:34:00,27.1,-7.6,29.74,WSW,254,6.3,6.3,21,0.00,,,0.00,VWS V14.01,2013-02-20 12:34:00,
2013-02-20 07:35:00,27.0,-7.8,29.74,WSW,254,4.0,8.7,21,0.00,,,0.00,VWS V14.01,2013-02-20 12:35:00,
2013-02-20 07:37:00,27.0,-7.8,29.74,WSW,254,5.8,8.1,21,0.00,,,0.00,VWS V14.01,2013-02-20 12:37:00,
2013-02-20 07:38:00,27.0,-7.8,29.74,WSW,254,3.1,3.1,21,0.00,,,0.00,VWS V14.01,2013-02-20 12:38:00,
2013-02-20 07:39:00,27.0,-7.8,29.74,WSW,254,2.7,4.5,21,0.00,,,0.00,VWS V14.01,2013-02-20 12:39:00,
2013-02-20 07:41:00,27.0,-7.8,29.74,WSW,254,3.6,3.6,21,0.00,,,0.00,VWS V14.01,2013-02-20 12:41:00,
2013-02-20 07:42:00,27.0,-7.8,29.74,WSW,254,3.6,3.6,21,0.00,,,0.00,VWS V14.01,2013-02-20 12:42:00,
2013-02-20 07:45:00,27.0,-7.8,29.74,WSW,254,4.0,4.9,21,0.00,,,0.00,VWS V14.01,2013-02-20 12:45:00,
2013-02-20 07:46:00,27.0,-7.8,29.74,WSW,254,5.4,5.4,21,0.00,,,0.00,VWS V14.01,2013-02-20 12:46:00,
2013-02-20 07:47:00,27.0,-7.8,29.74,WSW,254,4.0,4.0,21,0.00,,,0.00,VWS V14.01,2013-02-20 12:47:00,
2013-02-20 07:48:00,27.0,-7.8,29.74,WSW,254,2.7,2.7,21,0.00,,,0.00,VWS V14.01,2013-02-20 12:48:00,
2013-02-20 07:50:00,27.0,-7.8,29.74,WSW,254,3.1,7.6,21,0.00,,,0.00,VWS V14.01,2013-02-20 12:50:00,
2013-02-20 07:51:00,27.0,-7.8,29.77,WSW,254,4.0,4.0,21,0.00,,,0.00,VWS V14.01,2013-02-20 12:51:00,
2013-02-20 07:52:00,27.0,-7.8,29.77,WSW,254,4.9,8.7,21,0.00,,,0.00,VWS V14.01,2013-02-20 12:52:00,
2013-02-20 07:54:00,27.0,-7.8,29.77,WSW,254,6.3,8.7,21,0.00,,,0.00,VWS V14.01,2013-02-20 12:54:00,
2013-02-20 07:56:00,27.0,-7.8,29.77,WSW,254,6.3,9.6,21,0.00,,,0.00,VWS V14.01,2013-02-20 12:56:00,
2013-02-20 07:57:00,27.0,-7.8,29.77,WSW,254,7.6,7.6,21,0.00,,,0.00,VWS V14.01,2013-02-20 12:57:00,
2013-02-20 07:58:00,27.0,-7.8,29.77,WSW,254,5.8,5.8,21,0.00,,,0.00,VWS V14.01,2013-02-20 12:58:00,
2013-02-20 08:01:00,27.0,-7.8,29.77,WSW,254,5.4,5.4,21,0.00,,,0.00,VWS V14.01,2013-02-20 13:01:00,
2013-02-20 08:02:00,27.0,-7.8,29.77,WSW,254,5.8,6.7,21,0.00,,,0.00,VWS V14.01,2013-02-20 13:02:00,
2013-02-20 08:04:00,27.0,-7.8,29.77,WSW,254,5.4,5.8,21,0.00,,,0.00,VWS V14.01,2013-02-20 13:04:00,
2013-02-20 08:06:00,27.0,-7.8,29.77,WSW,254,5.8,6.7,21,0.00,,,0.00,VWS V14.01,2013-02-20 13:06:00,
2013-02-20 08:08:00,27.0,-7.8,29.77,WSW,254,7.6,8.1,21,0.00,,,0.00,VWS V14.01,2013-02-20 13:08:00,
2013-02-20 08:10:00,27.0,-7.8,29.77,WSW,254,8.1,8.1,21,0.00,,,0.00,VWS V14.01,2013-02-20 13:10:00,
2013-02-20 08:13:00,27.0,-7.8,29.77,WSW,254,2.7,7.2,21,0.00,,,0.00,VWS V14.01,2013-02-20 13:13:00,
2013-02-20 08:14:00,27.0,-7.8,29.77,WSW,254,2.7,5.8,21,0.00,,,0.00,VWS V14.01,2013-02-20 13:14:00,
2013-02-20 08:16:00,27.0,-7.8,29.77,WSW,254,5.8,6.3,21,0.00,,,0.00,VWS V14.01,2013-02-20 13:16:00,
2013-02-20 08:17:00,27.0,-7.8,29.77,WSW,254,3.1,6.3,21,0.00,,,0.00,VWS V14.01,2013-02-20 13:17:00,
2013-02-20 08:19:00,27.0,-7.8,29.77,WSW,254,8.1,8.1,21,0.00,,,0.00,VWS V14.01,2013-02-20 13:19:00,
2013-02-20 08:20:00,27.0,-7.8,29.77,WSW,254,3.1,8.1,21,0.00,,,0.00,VWS V14.01,2013-02-20 13:20:00,
2013-02-20 08:21:00,27.0,-7.8,29.77,WSW,254,6.3,8.1,21,0.00,,,0.00,VWS V14.01,2013-02-20 13:21:00,
2013-02-20 08:24:00,27.0,-7.8,29.77,WSW,254,5.4,5.4,21,0.00,,,0.00,VWS V14.01,2013-02-20 13:24:00,
2013-02-20 08:25:00,27.0,-7.8,29.77,WSW,254,6.3,6.3,21,0.00,,,0.00,VWS V14.01,2013-02-20 13:25:00,
2013-02-20 08:26:00,27.0,-7.8,29.77,WSW,254,0.0,6.3,21,0.00,,,0.00,VWS V14.01,2013-02-20 13:26:00,
2013-02-20 08:29:00,27.0,-7.8,29.77,WSW,254,8.3,11.9,21,0.00,,,0.00,VWS V14.01,2013-02-20 13:29:00,
2013-02-20 08:31:00,27.0,-7.8,29.77,WSW,254,4.9,4.9,21,0.00,,,0.00,VWS V14.01,2013-02-20 13:31:00,
2013-02-20 08:34:00,27.0,-7.8,29.77,WSW,254,2.7,5.4,21,0.00,,,0.00,VWS V14.01,2013-02-20 13:34:00,
2013-02-20 08:35:00,27.0,-7.8,29.77,WSW,254,7.2,7.2,21,0.00,,,0.00,VWS V14.01,2013-02-20 13:35:00,
2013-02-20 08:36:00,27.0,-7.8,29.77,WSW,254,8.3,11.4,21,0.00,,,0.00,VWS V14.01,2013-02-20 13:36:00,
2013-02-20 08:37:00,27.0,-7.8,29.77,WSW,254,8.3,11.4,21,0.00,,,0.00,VWS V14.01,2013-02-20 13:37:00,
2013-02-20 08:39:00,27.0,-7.8,29.77,WSW,254,2.7,6.3,21,0.00,,,0.00,VWS V14.01,2013-02-20 13:39:00,
2013-02-20 08:41:00,27.0,-7.8,29.77,WSW,254,4.0,9.6,21,0.00,,,0.00,VWS V14.01,2013-02-20 13:41:00,
2013-02-20 08:42:00,27.0,-7.8,29.77,WSW,254,4.0,6.3,21,0.00,,,0.00,VWS V14.01,2013-02-20 13:42:00,
2013-02-20 08:44:00,27.0,-7.8,29.77,WSW,254,3.6,5.4,21,0.00,,,0.00,VWS V14.01,2013-02-20 13:44:00,
2013-02-20 08:48:00,26.8,-7.9,29.77,WSW,254,3.6,6.3,21,0.00,,,0.00,VWS V14.01,2013-02-20 13:48:00,
2013-02-20 08:49:00,26.8,-7.9,29.77,WSW,254,3.1,4.0,21,0.00,,,0.00,VWS V14.01,2013-02-20 13:49:00,
2013-02-20 08:50:00,26.8,-7.9,29.77,WSW,254,3.1,5.4,21,0.00,,,0.00,VWS V14.01,2013-02-20 13:50:00,
2013-02-20 08:54:00,26.6,-8.1,29.77,WSW,254,4.0,8.3,21,0.00,,,0.00,VWS V14.01,2013-02-20 13:54:00,
2013-02-20 08:57:00,26.4,-8.2,29.77,WSW,254,4.0,8.7,21,0.00,,,0.00,VWS V14.01,2013-02-20 13:57:00,
2013-02-20 08:59:00,26.4,-8.2,29.77,WSW,254,3.6,4.0,21,0.00,,,0.00,VWS V14.01,2013-02-20 13:59:00,
2013-02-20 09:00:00,26.4,-8.2,29.77,WSW,254,5.8,5.8,21,0.00,,,0.00,VWS V14.01,2013-02-20 14:00:00,
2013-02-20 09:04:00,26.4,-8.2,29.77,WSW,254,5.4,6.3,21,0.00,,,0.00,VWS V14.01,2013-02-20 14:04:00,
2013-02-20 09:05:00,26.4,-8.2,29.77,WSW,254,8.1,8.1,21,0.00,,,0.00,VWS V14.01,2013-02-20 14:05:00,
2013-02-20 09:06:00,26.2,-8.4,29.77,WSW,254,3.1,8.1,21,0.00,,,0.00,VWS V14.01,2013-02-20 14:06:00,
2013-02-20 09:08:00,26.2,-8.4,29.80,WSW,254,5.8,8.3,21,0.00,,,0.00,VWS V14.01,2013-02-20 14:08:00,
2013-02-20 09:09:00,26.1,-8.5,29.80,WSW,254,11.9,11.9,21,0.00,,,0.00,VWS V14.01,2013-02-20 14:09:00,
2013-02-20 09:11:00,26.1,-8.5,29.80,WSW,254,8.7,8.7,21,0.00,,,0.00,VWS V14.01,2013-02-20 14:11:00,
2013-02-20 09:12:00,26.1,-8.5,29.80,WSW,254,10.1,11.0,21,0.00,,,0.00,VWS V14.01,2013-02-20 14:12:00,
2013-02-20 09:13:00,26.1,-8.5,29.80,WSW,254,5.4,7.2,21,0.00,,,0.00,VWS V14.01,2013-02-20 14:13:00,
2013-02-20 09:16:00,26.1,-8.5,29.80,WSW,254,5.4,10.1,21,0.00,,,0.00,VWS V14.01,2013-02-20 14:16:00,
2013-02-20 09:18:00,26.1,-8.5,29.80,WSW,254,6.3,6.3,21,0.00,,,0.00,VWS V14.01,2013-02-20 14:18:00,
2013-02-20 09:19:00,26.1,-8.5,29.80,WSW,254,6.3,6.3,21,0.00,,,0.00,VWS V14.01,2013-02-20 14:19:00,
2013-02-20 09:22:00,26.1,-8.5,29.77,WSW,254,4.0,8.7,21,0.00,,,0.00,VWS V14.01,2013-02-20 14:22:00,
2013-02-20 09:23:00,26.1,-8.5,29.77,WSW,254,5.4,5.4,21,0.00,,,0.00,VWS V14.01,2013-02-20 14:23:00,
2013-02-20 09:25:00,26.1,-8.5,29.77,WSW,254,5.8,5.8,21,0.00,,,0.00,VWS V14.01,2013-02-20 14:25:00,
2013-02-20 09:27:00,26.1,-8.5,29.77,WSW,254,5.8,5.8,21,0.00,,,0.00,VWS V14.01,2013-02-20 14:27:00,
2013-02-20 09:29:00,26.1,-8.5,29.77,WSW,254,7.2,7.2,21,0.00,,,0.00,VWS V14.01,2013-02-20 14:29:00,
2013-02-20 09:30:00,26.1,-8.5,29.77,WSW,254,4.0,7.2,21,0.00,,,0.00,VWS V14.01,2013-02-20 14:30:00,
2013-02-20 09:31:00,26.1,-8.5,29.77,WSW,254,4.0,8.1,21,0.00,,,0.00,VWS V14.01,2013-02-20 14:31:00,
2013-02-20 09:33:00,26.1,-10.5,29.77,WSW,254,5.8,5.8,19,0.00,,,0.00,VWS V14.01,2013-02-20 14:33:00,
2013-02-20 09:34:00,26.1,-10.5,29.77,WSW,254,5.4,5.4,19,0.00,,,0.00,VWS V14.01,2013-02-20 14:34:00,
2013-02-20 09:36:00,26.1,-10.5,29.77,WSW,254,2.7,4.0,19,0.00,,,0.00,VWS V14.01,2013-02-20 14:36:00,
2013-02-20 09:37:00,26.1,-10.5,29.80,WSW,254,7.2,9.2,19,0.00,,,0.00,VWS V14.01,2013-02-20 14:37:00,
2013-02-20 09:40:00,26.1,-10.5,29.80,WSW,254,5.4,7.6,19,0.00,,,0.00,VWS V14.01,2013-02-20 14:40:00,
2013-02-20 09:41:00,26.1,-10.5,29.80,WSW,254,2.7,5.4,19,0.00,,,0.00,VWS V14.01,2013-02-20 14:41:00,
2013-02-20 09:44:00,26.2,-10.4,29.80,WSW,254,2.7,5.8,19,0.00,,,0.00,VWS V14.01,2013-02-20 14:44:00,
2013-02-20 09:45:00,26.2,-10.4,29.80,WSW,254,3.1,5.8,19,0.00,,,0.00,VWS V14.01,2013-02-20 14:45:00,
2013-02-20 09:47:00,26.4,-10.2,29.80,WSW,254,5.8,7.2,19,0.00,,,0.00,VWS V14.01,2013-02-20 14:47:00,
2013-02-20 09:48:00,26.4,-10.2,29.80,WSW,254,5.8,5.8,19,0.00,,,0.00,VWS V14.01,2013-02-20 14:48:00,
2013-02-20 09:51:00,26.4,-10.2,29.80,WSW,254,7.2,8.3,19,0.00,,,0.00,VWS V14.01,2013-02-20 14:51:00,
2013-02-20 09:52:00,26.4,-10.2,29.80,WSW,254,8.3,8.3,19,0.00,,,0.00,VWS V14.01,2013-02-20 14:52:00,
2013-02-20 09:53:00,26.4,-10.2,29.80,WSW,254,5.4,8.1,19,0.00,,,0.00,VWS V14.01,2013-02-20 14:53:00,
2013-02-20 09:56:00,26.4,-10.2,29.80,WSW,254,2.7,8.3,19,0.00,,,0.00,VWS V14.01,2013-02-20 14:56:00,
2013-02-20 09:57:00,26.4,-10.2,29.80,WSW,254,3.1,8.3,19,0.00,,,0.00,VWS V14.01,2013-02-20 14:57:00,
2013-02-20 09:58:00,26.6,-10.1,29.80,WSW,254,11.9,11.9,19,0.00,,,0.00,VWS V14.01,2013-02-20 14:58:00,
2013-02-20 10:02:00,27.0,-10.9,29.80,West,261,6.3,8.7,18,0.00,,,0.00,VWS V14.01,2013-02-20 15:02:00,
2013-02-20 10:03:00,27.1,-10.7,29.80,West,262,5.8,8.7,18,0.00,,,0.00,VWS V14.01,2013-02-20 15:03:00,
2013-02-20 10:04:00,27.1,-10.7,29.80,West,262,3.1,8.7,18,0.00,,,0.00,VWS V14.01,2013-02-20 15:04:00,
2013-02-20 10:08:00,27.5,-10.4,29.80,West,262,8.1,8.1,18,0.00,,,0.00,VWS V14.01,2013-02-20 15:08:00,
2013-02-20 10:09:00,27.7,-10.3,29.80,West,262,3.1,8.1,18,0.00,,,0.00,VWS V14.01,2013-02-20 15:09:00,
2013-02-20 10:13:00,27.9,-10.1,29.80,West,280,6.3,6.3,18,0.00,,,0.00,VWS V14.01,2013-02-20 15:13:00,
2013-02-20 10:14:00,27.9,-10.1,29.80,West,280,7.6,7.6,18,0.00,,,0.00,VWS V14.01,2013-02-20 15:14:00,
2013-02-20 10:17:00,28.0,-10.0,29.80,West,279,3.6,6.7,18,0.00,,,0.00,VWS V14.01,2013-02-20 15:17:00,
2013-02-20 10:19:00,28.2,-9.8,29.80,West,279,3.6,5.4,18,0.00,,,0.00,VWS V14.01,2013-02-20 15:19:00,
2013-02-20 10:20:00,28.4,-9.7,29.80,West,279,7.6,7.6,18,0.00,,,0.00,VWS V14.01,2013-02-20 15:20:00,
2013-02-20 10:22:00,28.6,-9.5,29.77,West,279,4.9,8.3,18,0.00,,,0.00,VWS V14.01,2013-02-20 15:22:00,
2013-02-20 10:24:00,28.6,-9.5,29.77,West,279,7.6,9.6,18,0.00,,,0.00,VWS V14.01,2013-02-20 15:24:00,
2013-02-20 10:25:00,28.6,-9.5,29.77,West,279,5.4,6.3,18,0.00,,,0.00,VWS V14.01,2013-02-20 15:25:00,
2013-02-20 10:26:00,28.6,-9.5,29.77,West,279,3.1,3.1,18,0.00,,,0.00,VWS V14.01,2013-02-20 15:26:00,
2013-02-20 10:28:00,28.6,-9.5,29.77,SW,235,8.3,8.3,18,0.00,,,0.00,VWS V14.01,2013-02-20 15:28:00,
2013-02-20 10:30:00,28.6,-9.5,29.77,WSW,238,5.8,6.3,18,0.00,,,0.00,VWS V14.01,2013-02-20 15:30:00,
2013-02-20 10:32:00,28.6,-9.5,29.77,WSW,238,7.6,8.3,18,0.00,,,0.00,VWS V14.01,2013-02-20 15:32:00,
2013-02-20 10:33:00,28.4,-9.7,29.77,WSW,238,8.1,8.1,18,0.00,,,0.00,VWS V14.01,2013-02-20 15:33:00,
2013-02-20 10:35:00,28.4,-9.7,29.77,WSW,238,8.7,14.5,18,0.00,,,0.00,VWS V14.01,2013-02-20 15:35:00,
2013-02-20 10:38:00,28.6,-9.5,29.77,WSW,238,6.3,6.3,18,0.00,,,0.00,VWS V14.01,2013-02-20 15:38:00,
2013-02-20 10:40:00,28.9,-9.2,29.77,WSW,238,5.8,5.8,18,0.00,,,0.00,VWS V14.01,2013-02-20 15:40:00,
2013-02-20 10:41:00,28.9,-9.2,29.77,WSW,238,8.7,8.7,18,0.00,,,0.00,VWS V14.01,2013-02-20 15:41:00,
2013-02-20 10:42:00,28.9,-9.2,29.77,WSW,238,6.3,8.7,18,0.00,,,0.00,VWS V14.01,2013-02-20 15:42:00,
2013-02-20 10:44:00,29.3,-8.9,29.77,WSW,238,3.1,8.1,18,0.00,,,0.00,VWS V14.01,2013-02-20 15:44:00,
2013-02-20 10:46:00,29.1,-9.1,29.77,WSW,238,8.3,8.3,18,0.00,,,0.00,VWS V14.01,2013-02-20 15:46:00,
2013-02-20 10:47:00,29.1,-9.1,29.77,WSW,238,5.8,8.3,18,0.00,,,0.00,VWS V14.01,2013-02-20 15:47:00,
2013-02-20 10:50:00,28.6,-9.5,29.77,WSW,238,11.4,13.2,18,0.00,,,0.00,VWS V14.01,2013-02-20 15:50:00,
2013-02-20 10:52:00,28.6,-9.5,29.77,WSW,238,6.3,11.0,18,0.00,,,0.00,VWS V14.01,2013-02-20 15:52:00,
2013-02-20 10:53:00,28.6,-9.5,29.77,WSW,239,5.8,10.5,18,0.00,,,0.00,VWS V14.01,2013-02-20 15:53:00,
2013-02-20 10:55:00,28.6,-9.5,29.77,WSW,239,4.0,8.1,18,0.00,,,0.00,VWS V14.01,2013-02-20 15:55:00,
2013-02-20 10:56:00,28.6,-9.5,29.77,WSW,239,8.1,8.1,18,0.00,,,0.00,VWS V14.01,2013-02-20 15:56:00,
2013-02-20 10:57:00,28.6,-9.5,29.77,WSW,239,7.6,10.1,18,0.00,,,0.00,VWS V14.01,2013-02-20 15:57:00,
2013-02-20 11:00:00,28.6,-9.5,29.77,WSW,239,5.8,5.8,18,0.00,,,0.00,VWS V14.01,2013-02-20 16:00:00,
2013-02-20 11:01:00,28.6,-9.5,29.77,WSW,239,4.0,4.9,18,0.00,,,0.00,VWS V14.01,2013-02-20 16:01:00,
2013-02-20 11:02:00,28.6,-9.5,29.77,WSW,239,7.2,7.2,18,0.00,,,0.00,VWS V14.01,2013-02-20 16:02:00,
2013-02-20 11:03:00,28.6,-9.5,29.77,WSW,239,12.8,12.8,18,0.00,,,0.00,VWS V14.01,2013-02-20 16:03:00,
2013-02-20 11:06:00,28.6,-9.5,29.77,WSW,239,7.6,10.1,18,0.00,,,0.00,VWS V14.01,2013-02-20 16:06:00,
2013-02-20 11:08:00,28.4,-9.7,29.77,WSW,239,5.8,11.9,18,0.00,,,0.00,VWS V14.01,2013-02-20 16:08:00,
2013-02-20 11:09:00,28.4,-9.7,29.77,WSW,239,8.7,8.7,18,0.00,,,0.00,VWS V14.01,2013-02-20 16:09:00,
2013-02-20 11:10:00,28.2,-9.8,29.77,WSW,239,12.3,12.3,18,0.00,,,0.00,VWS V14.01,2013-02-20 16:10:00,
2013-02-20 11:12:00,28.2,-9.8,29.77,WSW,239,7.6,8.7,18,0.00,,,0.00,VWS V14.01,2013-02-20 16:12:00,
2013-02-20 11:13:00,28.0,-10.0,29.77,WSW,239,10.1,10.1,18,0.00,,,0.00,VWS V14.01,2013-02-20 16:13:00,
2013-02-20 11:16:00,28.0,-10.0,29.77,WSW,239,4.0,6.3,18,0.00,,,0.00,VWS V14.01,2013-02-20 16:16:00,
2013-02-20 11:17:00,28.0,-10.0,29.77,WSW,239,6.3,6.3,18,0.00,,,0.00,VWS V14.01,2013-02-20 16:17:00,
2013-02-20 11:18:00,28.2,-9.8,29.77,WSW,239,3.1,4.0,18,0.00,,,0.00,VWS V14.01,2013-02-20 16:18:00,
2013-02-20 11:19:00,28.2,-9.8,29.77,WSW,239,5.8,5.8,18,0.00,,,0.00,VWS V14.01,2013-02-20 16:19:00,
2013-02-20 11:21:00,28.2,-9.8,29.77,WSW,239,4.0,11.0,18,0.00,,,0.00,VWS V14.01,2013-02-20 16:21:00,
2013-02-20 11:22:00,28.2,-9.8,29.80,WSW,239,7.6,12.3,18,0.00,,,0.00,VWS V14.01,2013-02-20 16:22:00,
2013-02-20 11:24:00,28.2,-9.8,29.80,WSW,239,3.1,6.3,18,0.00,,,0.00,VWS V14.01,2013-02-20 16:24:00,
2013-02-20 11:26:00,28.2,-9.8,29.80,WSW,239,7.2,10.1,18,0.00,,,0.00,VWS V14.01,2013-02-20 16:26:00,
2013-02-20 11:27:00,28.4,-9.7,29.80,WSW,239,3.6,4.0,18,0.00,,,0.00,VWS V14.01,2013-02-20 16:27:00,
2013-02-20 11:28:00,28.4,-9.7,29.80,WSW,239,6.3,6.3,18,0.00,,,0.00,VWS V14.01,2013-02-20 16:28:00,
2013-02-20 11:30:00,28.6,-9.5,29.80,WSW,248,7.6,7.6,18,0.00,,,0.00,VWS V14.01,2013-02-20 16:30:00,
2013-02-20 11:33:00,28.8,-9.4,29.80,WSW,248,7.2,7.2,18,0.00,,,0.00,VWS V14.01,2013-02-20 16:33:00,
2013-02-20 11:34:00,28.8,-9.4,29.80,WSW,248,6.3,8.3,18,0.00,,,0.00,VWS V14.01,2013-02-20 16:34:00,
2013-02-20 11:35:00,28.8,-9.4,29.80,WSW,248,3.1,3.1,18,0.00,,,0.00,VWS V14.01,2013-02-20 16:35:00,
2013-02-20 11:39:00,29.1,-9.1,29.77,WNW,290,5.8,5.8,18,0.00,,,0.00,VWS V14.01,2013-02-20 16:39:00,
2013-02-20 11:40:00,29.3,-8.9,29.77,WNW,290,8.1,8.1,18,0.00,,,0.00,VWS V14.01,2013-02-20 16:40:00,
2013-02-20 11:44:00,29.5,-8.8,29.77,WNW,290,3.6,4.0,18,0.00,,,0.00,VWS V14.01,2013-02-20 16:44:00,
2013-02-20 11:45:00,29.7,-8.6,29.77,WNW,287,5.8,5.8,18,0.00,,,0.00,VWS V14.01,2013-02-20 16:45:00,
2013-02-20 11:46:00,29.8,-8.5,29.77,NW,306,5.8,5.8,18,0.00,,,0.00,VWS V14.01,2013-02-20 16:46:00,
2013-02-20 11:49:00,30.4,-8.0,29.77,SW,234,5.4,5.8,18,0.00,,,0.00,VWS V14.01,2013-02-20 16:49:00,
2013-02-20 11:51:00,30.6,-7.9,29.77,West,269,6.3,6.3,18,0.00,,,0.00,VWS V14.01,2013-02-20 16:51:00,
2013-02-20 11:52:00,30.6,-7.9,29.77,West,268,5.4,6.3,18,0.00,,,0.00,VWS V14.01,2013-02-20 16:52:00,
2013-02-20 11:56:00,30.2,-8.2,29.77,WSW,241,5.4,5.4,18,0.00,,,0.00,VWS V14.01,2013-02-20 16:56:00,
2013-02-20 11:57:00,30.2,-8.2,29.77,WSW,241,4.9,6.3,18,0.00,,,0.00,VWS V14.01,2013-02-20 16:57:00,
2013-02-20 11:58:00,30.2,-8.2,29.77,WSW,241,5.8,8.7,18,0.00,,,0.00,VWS V14.01,2013-02-20 16:58:00,
2013-02-20 12:00:00,30.2,-8.2,29.77,West,268,7.6,11.9,18,0.00,,,0.00,VWS V14.01,2013-02-20 17:00:00,
2013-02-20 12:03:00,30.0,-8.3,29.77,WSW,237,4.9,8.3,18,0.00,,,0.00,VWS V14.01,2013-02-20 17:03:00,
2013-02-20 12:04:00,30.0,-8.3,29.77,WSW,237,11.0,11.0,18,0.00,,,0.00,VWS V14.01,2013-02-20 17:04:00,
2013-02-20 12:05:00,29.8,-8.5,29.77,WSW,249,6.3,11.0,18,0.00,,,0.00,VWS V14.01,2013-02-20 17:05:00,
2013-02-20 12:08:00,29.7,-8.6,29.77,SW,234,3.6,5.8,18,0.00,,,0.00,VWS V14.01,2013-02-20 17:08:00,
2013-02-20 12:10:00,29.5,-8.8,29.77,West,281,8.1,9.6,18,0.00,,,0.00,VWS V14.01,2013-02-20 17:10:00,
2013-02-20 12:13:00,29.3,-8.9,29.77,NNE,22,5.4,12.8,18,0.00,,,0.00,VWS V14.01,2013-02-20 17:13:00,
2013-02-20 12:15:00,29.1,-9.1,29.77,WSW,250,5.8,7.6,18,0.00,,,0.00,VWS V14.01,2013-02-20 17:15:00,
2013-02-20 12:16:00,29.1,-9.1,29.77,WNW,285,5.8,8.3,18,0.00,,,0.00,VWS V14.01,2013-02-20 17:16:00,
2013-02-20 12:19:00,29.1,-9.1,29.77,NNW,334,3.6,7.6,18,0.00,,,0.00,VWS V14.01,2013-02-20 17:19:00,
2013-02-20 12:20:00,29.1,-9.1,29.77,West,271,4.0,7.6,18,0.00,,,0.00,VWS V14.01,2013-02-20 17:20:00,
2013-02-20 12:21:00,29.1,-9.1,29.77,SW,228,3.1,10.5,18,0.00,,,0.00,VWS V14.01,2013-02-20 17:21:00,
2013-02-20 12:22:00,29.1,-9.1,29.77,SW,231,15.4,15.4,18,0.00,,,0.00,VWS V14.01,2013-02-20 17:22:00,
2013-02-20 12:24:00,29.1,-9.1,29.77,West,279,8.1,8.1,18,0.00,,,0.00,VWS V14.01,2013-02-20 17:24:00,
2013-02-20 12:26:00,29.1,-9.1,29.77,WSW,255,3.6,11.0,18,0.00,,,0.00,VWS V14.01,2013-02-20 17:26:00,
2013-02-20 12:27:00,29.3,-8.9,29.77,West,274,6.3,8.7,18,0.00,,,0.00,VWS V14.01,2013-02-20 17:27:00,
2013-02-20 12:31:00,29.5,-8.8,29.77,West,278,3.6,3.6,18,0.00,,,0.00,VWS V14.01,2013-02-20 17:31:00,
2013-02-20 12:32:00,29.7,-8.6,29.77,West,264,8.7,8.7,18,0.00,,,0.00,VWS V14.01,2013-02-20 17:32:00,
2013-02-20 12:33:00,29.8,-8.5,29.77,SW,231,3.6,8.7,18,0.00,,,0.00,VWS V14.01,2013-02-20 17:33:00,
2013-02-20 12:36:00,30.2,-8.2,29.77,West,270,7.6,8.3,18,0.00,,,0.00,VWS V14.01,2013-02-20 17:36:00,
2013-02-20 12:37:00,30.2,-8.2,29.77,West,270,8.7,10.1,18,0.00,,,0.00,VWS V14.01,2013-02-20 17:37:00,
2013-02-20 12:38:00,30.0,-8.3,29.77,WSW,248,6.3,10.1,18,0.00,,,0.00,VWS V14.01,2013-02-20 17:38:00,
2013-02-20 12:39:00,30.2,-8.2,29.77,WSW,248,4.9,4.9,18,0.00,,,0.00,VWS V14.01,2013-02-20 17:39:00,
2013-02-20 12:43:00,30.0,-8.3,29.77,WNW,285,8.3,8.3,18,0.00,,,0.00,VWS V14.01,2013-02-20 17:43:00,
2013-02-20 12:44:00,29.8,-8.5,29.77,WNW,285,7.6,8.3,18,0.00,,,0.00,VWS V14.01,2013-02-20 17:44:00,
2013-02-20 12:49:00,29.8,-8.5,29.77,WSW,256,6.7,10.5,18,0.00,,,0.00,VWS V14.01,2013-02-20 17:49:00,
2013-02-20 12:50:00,29.7,-8.6,29.77,West,264,10.1,10.5,18,0.00,,,0.00,VWS V14.01,2013-02-20 17:50:00,
2013-02-20 12:51:00,29.7,-8.6,29.77,WSW,243,3.1,8.7,18,0.00,,,0.00,VWS V14.01,2013-02-20 17:51:00,
2013-02-20 12:55:00,29.7,-8.6,29.77,West,268,7.2,11.0,18,0.00,,,0.00,VWS V14.01,2013-02-20 17:55:00,
2013-02-20 12:56:00,29.5,-8.8,29.77,SW,230,8.1,10.5,18,0.00,,,0.00,VWS V14.01,2013-02-20 17:56:00,
2013-02-20 12:57:00,29.5,-8.8,29.77,WNW,282,8.7,8.7,18,0.00,,,0.00,VWS V14.01,2013-02-20 17:57:00,
2013-02-20 13:00:00,29.5,-8.8,29.77,WNW,288,8.1,8.3,18,0.00,,,0.00,VWS V14.01,2013-02-20 18:00:00,
2013-02-20 13:02:00,29.5,-8.8,29.77,West,259,12.3,12.3,18,0.00,,,0.00,VWS V14.01,2013-02-20 18:02:00,
2013-02-20 13:03:00,29.7,-8.6,29.77,WNW,286,4.0,8.3,18,0.00,,,0.00,VWS V14.01,2013-02-20 18:03:00,
2013-02-20 13:05:00,29.7,-8.6,29.77,WSW,254,5.4,9.6,18,0.00,,,0.00,VWS V14.01,2013-02-20 18:05:00,
2013-02-20 13:07:00,29.8,-8.5,29.77,WSW,257,10.1,10.1,18,0.00,,,0.00,VWS V14.01,2013-02-20 18:07:00,
2013-02-20 13:08:00,29.8,-8.5,29.77,West,279,8.7,10.1,18,0.00,,,0.00,VWS V14.01,2013-02-20 18:08:00,
2013-02-20 13:10:00,29.8,-8.5,29.77,West,279,3.1,8.7,18,0.00,,,0.00,VWS V14.01,2013-02-20 18:10:00,
2013-02-20 13:11:00,29.8,-8.5,29.77,WNW,303,8.3,8.3,18,0.00,,,0.00,VWS V14.01,2013-02-20 18:11:00,
2013-02-20 13:14:00,29.7,-8.6,29.77,West,268,8.1,8.3,18,0.00,,,0.00,VWS V14.01,2013-02-20 18:14:00,
2013-02-20 13:16:00,29.8,-8.5,29.77,West,278,2.7,3.6,18,0.00,,,0.00,VWS V14.01,2013-02-20 18:16:00,
2013-02-20 13:17:00,30.0,-8.3,29.77,West,280,5.4,10.5,18,0.00,,,0.00,VWS V14.01,2013-02-20 18:17:00,
2013-02-20 13:21:00,30.0,-8.3,29.77,West,279,2.7,9.6,18,0.00,,,0.00,VWS V14.01,2013-02-20 18:21:00,
2013-02-20 13:23:00,30.2,-8.2,29.77,WNW,282,10.1,10.1,18,0.00,,,0.00,VWS V14.01,2013-02-20 18:23:00,
2013-02-20 13:24:00,30.2,-8.2,29.77,WNW,284,8.7,11.0,18,0.00,,,0.00,VWS V14.01,2013-02-20 18:24:00,
2013-02-20 13:26:00,30.2,-8.2,29.77,WNW,282,3.6,5.4,18,0.00,,,0.00,VWS V14.01,2013-02-20 18:26:00,
2013-02-20 13:29:00,30.0,-8.3,29.77,West,278,4.9,7.6,18,0.00,,,0.00,VWS V14.01,2013-02-20 18:29:00,
2013-02-20 13:30:00,29.8,-8.5,29.77,WNW,290,5.8,5.8,18,0.00,,,0.00,VWS V14.01,2013-02-20 18:30:00,
2013-02-20 13:31:00,29.8,-8.5,29.77,WSW,252,6.3,8.7,18,0.00,,,0.00,VWS V14.01,2013-02-20 18:31:00,
2013-02-20 13:32:00,29.8,-8.5,29.77,WSW,252,6.3,8.7,18,0.00,,,0.00,VWS V14.01,2013-02-20 18:32:00,
2013-02-20 13:35:00,29.5,-8.8,29.77,SSW,198,6.3,9.6,18,0.00,,,0.00,VWS V14.01,2013-02-20 18:35:00,
2013-02-20 13:36:00,29.5,-8.8,29.77,WSW,258,4.0,5.4,18,0.00,,,0.00,VWS V14.01,2013-02-20 18:36:00,
2013-02-20 13:37:00,29.5,-8.8,29.77,WSW,241,8.1,8.1,18,0.00,,,0.00,VWS V14.01,2013-02-20 18:37:00,
2013-02-20 13:40:00,29.5,-8.8,29.77,SW,220,4.5,8.7,18,0.00,,,0.00,VWS V14.01,2013-02-20 18:40:00,
2013-02-20 13:41:00,29.5,-8.8,29.77,WNW,285,8.1,8.1,18,0.00,,,0.00,VWS V14.01,2013-02-20 18:41:00,
2013-02-20 13:42:00,29.5,-8.8,29.77,NW,324,8.1,8.1,18,0.00,,,0.00,VWS V14.01,2013-02-20 18:42:00,
2013-02-20 13:46:00,29.7,-8.6,29.77,West,263,8.1,8.3,18,0.00,,,0.00,VWS V14.01,2013-02-20 18:46:00,
2013-02-20 13:47:00,29.8,-8.5,29.77,SSE,163,5.8,8.7,18,0.00,,,0.00,VWS V14.01,2013-02-20 18:47:00,
2013-02-20 13:48:00,30.2,-8.2,29.77,West,281,10.5,10.5,18,0.00,,,0.00,VWS V14.01,2013-02-20 18:48:00,
2013-02-20 13:52:00,30.2,-8.2,29.77,West,266,6.3,8.1,18,0.00,,,0.00,VWS V14.01,2013-02-20 18:52:00,
2013-02-20 13:53:00,30.4,-8.0,29.77,WNW,289,8.7,8.7,18,0.00,,,0.00,VWS V14.01,2013-02-20 18:53:00,
2013-02-20 13:57:00,30.2,-8.2,29.77,WNW,283,3.6,7.2,18,0.00,,,0.00,VWS V14.01,2013-02-20 18:57:00,
2013-02-20 13:58:00,30.2,-8.2,29.77,WNW,290,5.8,8.7,18,0.00,,,0.00,VWS V14.01,2013-02-20 18:58:00,
2013-02-20 13:59:00,30.0,-8.3,29.77,SW,236,8.7,11.9,18,0.00,,,0.00,VWS V14.01,2013-02-20 18:59:00,
2013-02-20 14:01:00,29.7,-8.6,29.77,WSW,254,7.6,8.3,18,0.00,,,0.00,VWS V14.01,2013-02-20 19:01:00,
2013-02-20 14:03:00,29.5,-8.8,29.77,WSW,250,8.3,10.1,18,0.00,,,0.00,VWS V14.01,2013-02-20 19:03:00,
2013-02-20 14:05:00,29.3,-8.9,29.77,NW,304,6.3,8.3,18,0.00,,,0.00,VWS V14.01,2013-02-20 19:05:00,
2013-02-20 14:06:00,29.5,-8.8,29.77,WNW,284,7.6,10.1,18,0.00,,,0.00,VWS V14.01,2013-02-20 19:06:00,
2013-02-20 14:09:00,29.7,-8.6,29.77,WSW,248,6.3,7.6,18,0.00,,,0.00,VWS V14.01,2013-02-20 19:09:00,
2013-02-20 14:10:00,29.8,-8.5,29.77,West,270,7.6,9.6,18,0.00,,,0.00,VWS V14.01,2013-02-20 19:10:00,
2013-02-20 14:12:00,29.8,-8.5,29.77,WNW,287,5.4,6.7,18,0.00,,,0.00,VWS V14.01,2013-02-20 19:12:00,
2013-02-20 14:14:00,29.8,-8.5,29.77,West,275,8.7,11.0,18,0.00,,,0.00,VWS V14.01,2013-02-20 19:14:00,
2013-02-20 14:15:00,29.8,-8.5,29.77,South,187,5.8,11.0,18,0.00,,,0.00,VWS V14.01,2013-02-20 19:15:00,
2013-02-20 14:17:00,29.7,-8.6,29.77,WNW,302,8.1,8.1,18,0.00,,,0.00,VWS V14.01,2013-02-20 19:17:00,
2013-02-20 14:20:00,29.5,-8.8,29.77,NW,306,4.9,11.0,18,0.00,,,0.00,VWS V14.01,2013-02-20 19:20:00,
2013-02-20 14:21:00,29.5,-8.8,29.77,NNW,337,4.0,11.0,18,0.00,,,0.00,VWS V14.01,2013-02-20 19:21:00,
2013-02-20 14:22:00,29.5,-8.8,29.77,WNW,303,6.3,6.3,18,0.00,,,0.00,VWS V14.01,2013-02-20 19:22:00,
2013-02-20 14:26:00,29.7,-8.6,29.77,West,267,12.8,12.8,18,0.00,,,0.00,VWS V14.01,2013-02-20 19:26:00,
2013-02-20 14:27:00,29.7,-8.6,29.77,WSW,254,12.8,12.8,18,0.00,,,0.00,VWS V14.01,2013-02-20 19:27:00,
2013-02-20 14:31:00,29.7,-8.6,29.77,SSW,204,6.3,6.3,18,0.00,,,0.00,VWS V14.01,2013-02-20 19:31:00,
2013-02-20 14:32:00,29.7,-8.6,29.77,North,353,3.6,10.5,18,0.00,,,0.00,VWS V14.01,2013-02-20 19:32:00,
2013-02-20 14:33:00,29.7,-8.6,29.77,SW,223,7.6,8.7,18,0.00,,,0.00,VWS V14.01,2013-02-20 19:33:00,
2013-02-20 14:36:00,29.5,-8.8,29.80,WNW,283,6.3,8.1,18,0.00,,,0.00,VWS V14.01,2013-02-20 19:36:00,
2013-02-20 14:38:00,29.5,-8.8,29.80,WNW,303,0.0,0.0,18,0.00,,,0.00,VWS V14.01,2013-02-20 19:38:00,
2013-02-20 14:39:00,29.5,-8.8,29.80,WSW,258,4.0,5.8,18,0.00,,,0.00,VWS V14.01,2013-02-20 19:39:00,
2013-02-20 14:42:00,29.3,-8.9,29.80,West,263,8.1,9.6,18,0.00,,,0.00,VWS V14.01,2013-02-20 19:42:00,
2013-02-20 14:43:00,29.1,-9.1,29.80,North,2,2.7,7.6,18,0.00,,,0.00,VWS V14.01,2013-02-20 19:43:00,
2013-02-20 14:45:00,28.9,-9.2,29.80,NW,309,8.3,8.7,18,0.00,,,0.00,VWS V14.01,2013-02-20 19:45:00,
2013-02-20 14:47:00,28.8,-9.4,29.80,NW,320,8.7,10.1,18,0.00,,,0.00,VWS V14.01,2013-02-20 19:47:00,
2013-02-20 14:48:00,28.8,-9.4,29.80,West,267,3.1,5.4,18,0.00,,,0.00,VWS V14.01,2013-02-20 19:48:00,
2013-02-20 14:49:00,28.8,-9.4,29.80,WSW,252,5.8,6.7,18,0.00,,,0.00,VWS V14.01,2013-02-20 19:49:00,
2013-02-20 14:50:00,28.8,-9.4,29.80,WNW,294,11.0,11.0,18,0.00,,,0.00,VWS V14.01,2013-02-20 19:50:00,
2013-02-20 14:53:00,28.6,-9.5,29.80,WSW,237,7.6,7.6,18,0.00,,,0.00,VWS V14.01,2013-02-20 19:53:00,
2013-02-20 14:54:00,28.6,-9.5,29.80,NNW,345,11.0,11.0,18,0.00,,,0.00,VWS V14.01,2013-02-20 19:54:00,
2013-02-20 14:55:00,28.6,-9.5,29.80,WSW,249,6.3,6.3,18,0.00,,,0.00,VWS V14.01,2013-02-20 19:55:00,
2013-02-20 14:56:00,28.6,-9.5,29.80,NW,313,4.0,7.2,18,0.00,,,0.00,VWS V14.01,2013-02-20 19:56:00,
2013-02-20 14:58:00,28.6,-9.5,29.80,West,261,5.8,12.3,18,0.00,,,0.00,VWS V14.01,2013-02-20 19:58:00,
2013-02-20 15:00:00,28.6,-9.5,29.80,WSW,248,5.8,7.6,18,0.00,,,0.00,VWS V14.01,2013-02-20 20:00:00,
2013-02-20 15:02:00,28.4,-9.7,29.80,NNW,346,6.3,6.3,18,0.00,,,0.00,VWS V14.01,2013-02-20 20:02:00,
2013-02-20 15:03:00,28.4,-9.7,29.80,West,279,4.9,4.9,18,0.00,,,0.00,VWS V14.01,2013-02-20 20:03:00,
2013-02-20 15:05:00,28.2,-9.8,29.80,WNW,295,2.2,4.0,18,0.00,,,0.00,VWS V14.01,2013-02-20 20:05:00,
2013-02-20 15:07:00,28.2,-9.8,29.80,NNW,342,3.6,8.1,18,0.00,,,0.00,VWS V14.01,2013-02-20 20:07:00,
2013-02-20 15:08:00,28.2,-9.8,29.80,WNW,303,6.3,6.3,18,0.00,,,0.00,VWS V14.01,2013-02-20 20:08:00,
2013-02-20 15:11:00,28.4,-9.7,29.80,NNW,327,6.3,8.1,18,0.00,,,0.00,VWS V14.01,2013-02-20 20:11:00,
2013-02-20 15:12:00,28.4,-9.7,29.80,NW,310,3.6,10.1,18,0.00,,,0.00,VWS V14.01,2013-02-20 20:12:00,
2013-02-20 15:13:00,28.4,-9.7,29.80,WNW,289,3.1,10.1,18,0.00,,,0.00,VWS V14.01,2013-02-20 20:13:00,
2013-02-20 15:16:00,28.2,-9.8,29.80,SSE,167,4.0,8.1,18,0.00,,,0.00,VWS V14.01,2013-02-20 20:16:00,
2013-02-20 15:17:00,28.2,-9.8,29.80,West,263,2.7,5.4,18,0.00,,,0.00,VWS V14.01,2013-02-20 20:17:00,
2013-02-20 15:18:00,28.4,-9.7,29.80,WNW,296,3.6,4.9,18,0.00,,,0.00,VWS V14.01,2013-02-20 20:18:00,
2013-02-20 15:21:00,28.4,-9.7,29.80,NW,325,8.1,8.7,18,0.00,,,0.00,VWS V14.01,2013-02-20 20:21:00,
2013-02-20 15:22:00,28.4,-9.7,29.80,West,261,5.4,7.6,18,0.00,,,0.00,VWS V14.01,2013-02-20 20:22:00,
2013-02-20 15:23:00,28.4,-9.7,29.80,West,265,8.3,8.3,18,0.00,,,0.00,VWS V14.01,2013-02-20 20:23:00,
2013-02-20 15:25:00,28.2,-9.8,29.80,SW,235,3.1,3.1,18,0.00,,,0.00,VWS V14.01,2013-02-20 20:25:00,
2013-02-20 15:26:00,28.2,-9.8,29.80,SW,224,5.8,8.1,18,0.00,,,0.00,VWS V14.01,2013-02-20 20:26:00,
2013-02-20 15:28:00,28.2,-9.8,29.80,WSW,257,5.4,5.4,18,0.00,,,0.00,VWS V14.01,2013-02-20 20:28:00,
2013-02-20 15:31:00,28.0,-10.0,29.80,WNW,303,5.4,5.8,18,0.00,,,0.00,VWS V14.01,2013-02-20 20:31:00,
2013-02-20 15:32:00,28.0,-10.0,29.80,WSW,240,5.4,6.7,18,0.00,,,0.00,VWS V14.01,2013-02-20 20:32:00,
2013-02-20 15:35:00,27.9,-10.1,29.80,WSW,247,5.8,8.1,18,0.00,,,0.00,VWS V14.01,2013-02-20 20:35:00,
2013-02-20 15:36:00,27.9,-10.1,29.80,NW,316,8.3,8.3,18,0.00,,,0.00,VWS V14.01,2013-02-20 20:36:00,
2013-02-20 15:37:00,27.9,-10.1,29.80,WNW,283,5.4,7.2,18,0.00,,,0.00,VWS V14.01,2013-02-20 20:37:00,
2013-02-20 15:39:00,27.9,-10.1,29.80,WSW,252,5.8,10.1,18,0.00,,,0.00,VWS V14.01,2013-02-20 20:39:00,
2013-02-20 15:40:00,27.9,-10.1,29.80,West,269,4.9,4.9,18,0.00,,,0.00,VWS V14.01,2013-02-20 20:40:00,
2013-02-20 15:41:00,27.9,-10.1,29.80,WNW,282,7.6,7.6,18,0.00,,,0.00,VWS V14.01,2013-02-20 20:41:00,
2013-02-20 15:42:00,27.9,-10.1,29.80,WSW,244,6.3,6.3,18,0.00,,,0.00,VWS V14.01,2013-02-20 20:42:00,
2013-02-20 15:45:00,27.9,-10.1,29.80,West,262,5.8,5.8,18,0.00,,,0.00,VWS V14.01,2013-02-20 20:45:00,
2013-02-20 15:47:00,27.9,-10.1,29.80,WNW,303,3.6,6.3,18,0.00,,,0.00,VWS V14.01,2013-02-20 20:47:00,
2013-02-20 15:49:00,28.0,-10.0,29.80,WNW,301,2.2,4.0,18,0.00,,,0.00,VWS V14.01,2013-02-20 20:49:00,
2013-02-20 15:52:00,28.2,-9.8,29.80,WSW,242,3.1,7.2,18,0.00,,,0.00,VWS V14.01,2013-02-20 20:52:00,
2013-02-20 15:53:00,28.2,-9.8,29.80,NW,306,3.6,7.2,18,0.00,,,0.00,VWS V14.01,2013-02-20 20:53:00,
2013-02-20 15:55:00,28.2,-9.8,29.80,West,261,3.6,8.1,18,0.00,,,0.00,VWS V14.01,2013-02-20 20:55:00,
2013-02-20 15:58:00,28.2,-9.8,29.80,WNW,294,6.3,6.3,18,0.00,,,0.00,VWS V14.01,2013-02-20 20:58:00,
2013-02-20 16:00:00,28.2,-9.8,29.80,West,268,10.5,10.5,18,0.00,,,0.00,VWS V14.01,2013-02-20 21:00:00,
2013-02-20 16:02:00,28.4,-9.7,29.80,West,262,8.3,8.3,18,0.00,,,0.00,VWS V14.01,2013-02-20 21:02:00,
2013-02-20 16:04:00,28.2,-9.8,29.80,SW,221,8.7,8.7,18,0.00,,,0.00,VWS V14.01,2013-02-20 21:04:00,
2013-02-20 16:05:00,28.2,-9.8,29.80,WNW,291,8.3,9.2,18,0.00,,,0.00,VWS V14.01,2013-02-20 21:05:00,
2013-02-20 16:08:00,27.9,-10.1,29.83,WNW,282,8.3,8.3,18,0.00,,,0.00,VWS V14.01,2013-02-20 21:08:00,
2013-02-20 16:09:00,27.9,-10.1,29.83,SW,224,4.0,4.0,18,0.00,,,0.00,VWS V14.01,2013-02-20 21:09:00,
2013-02-20 16:11:00,27.7,-10.3,29.83,WNW,294,6.7,7.6,18,0.00,,,0.00,VWS V14.01,2013-02-20 21:11:00,
2013-02-20 16:14:00,27.7,-10.3,29.83,North,353,3.1,3.1,18,0.00,,,0.00,VWS V14.01,2013-02-20 21:14:00,
2013-02-20 16:15:00,27.7,-10.3,29.83,North,0,3.6,3.6,18,0.00,,,0.00,VWS V14.01,2013-02-20 21:15:00,
2013-02-20 16:16:00,27.7,-10.3,29.83,West,270,3.1,8.1,18,0.00,,,0.00,VWS V14.01,2013-02-20 21:16:00,
2013-02-20 16:19:00,27.7,-10.3,29.83,WNW,290,5.4,8.3,18,0.00,,,0.00,VWS V14.01,2013-02-20 21:19:00,
2013-02-20 16:20:00,27.7,-10.3,29.83,WSW,257,4.0,4.0,18,0.00,,,0.00,VWS V14.01,2013-02-20 21:20:00,
2013-02-20 16:21:00,27.7,-10.3,29.83,WNW,282,5.4,8.1,18,0.00,,,0.00,VWS V14.01,2013-02-20 21:21:00,
2013-02-20 16:24:00,27.7,-10.3,29.83,WSW,255,5.4,5.4,18,0.00,,,0.00,VWS V14.01,2013-02-20 21:24:00,
2013-02-20 16:25:00,27.7,-10.3,29.83,West,273,3.1,5.4,18,0.00,,,0.00,VWS V14.01,2013-02-20 21:25:00,
2013-02-20 16:26:00,27.7,-10.3,29.83,West,279,6.3,6.3,18,0.00,,,0.00,VWS V14.01,2013-02-20 21:26:00,
2013-02-20 16:28:00,27.7,-10.3,29.83,WSW,257,4.0,5.4,18,0.00,,,0.00,VWS V14.01,2013-02-20 21:28:00,
2013-02-20 16:31:00,27.7,-10.3,29.83,WSW,251,7.2,10.1,18,0.00,,,0.00,VWS V14.01,2013-02-20 21:31:00,
2013-02-20 16:35:00,27.7,-10.3,29.83,West,265,5.4,6.3,18,0.00,,,0.00,VWS V14.01,2013-02-20 21:35:00,
2013-02-20 16:36:00,27.7,-10.3,29.83,West,272,5.4,8.3,18,0.00,,,0.00,VWS V14.01,2013-02-20 21:36:00,
2013-02-20 16:37:00,27.7,-10.3,29.83,NW,312,11.0,11.0,18,0.00,,,0.00,VWS V14.01,2013-02-20 21:37:00,
2013-02-20 16:38:00,27.7,-10.3,29.83,WSW,256,10.5,11.0,18,0.00,,,0.00,VWS V14.01,2013-02-20 21:38:00,
2013-02-20 16:40:00,27.7,-10.3,29.83,NW,316,5.8,5.8,18,0.00,,,0.00,VWS V14.01,2013-02-20 21:40:00,
2013-02-20 16:41:00,27.7,-10.3,29.83,WNW,291,4.9,5.8,18,0.00,,,0.00,VWS V14.01,2013-02-20 21:41:00,
2013-02-20 16:42:00,27.7,-10.3,29.83,WNW,301,8.7,8.7,18,0.00,,,0.00,VWS V14.01,2013-02-20 21:42:00,
2013-02-20 16:44:00,27.5,-10.4,29.83,WNW,290,5.8,6.3,18,0.00,,,0.00,VWS V14.01,2013-02-20 21:44:00,
2013-02-20 16:46:00,27.3,-10.6,29.83,West,269,4.0,4.0,18,0.00,,,0.00,VWS V14.01,2013-02-20 21:46:00,
2013-02-20 16:47:00,27.5,-10.4,29.83,SW,230,18.3,18.3,18,0.00,,,0.00,VWS V14.01,2013-02-20 21:47:00,
2013-02-20 16:50:00,27.3,-10.6,29.83,WSW,238,5.4,6.3,18,0.00,,,0.00,VWS V14.01,2013-02-20 21:50:00,
2013-02-20 16:51:00,27.3,-10.6,29.83,WNW,293,8.1,8.3,18,0.00,,,0.00,VWS V14.01,2013-02-20 21:51:00,
2013-02-20 16:52:00,27.3,-10.6,29.83,West,263,2.7,5.4,18,0.00,,,0.00,VWS V14.01,2013-02-20 21:52:00,
2013-02-20 16:53:00,27.3,-10.6,29.83,West,278,5.4,5.4,18,0.00,,,0.00,VWS V14.01,2013-02-20 21:53:00,
2013-02-20 16:57:00,27.3,-10.6,29.83,NW,313,5.4,7.6,18,0.00,,,0.00,VWS V14.01,2013-02-20 21:57:00,
2013-02-20 16:59:00,27.3,-10.6,29.83,WNW,285,7.2,7.2,18,0.00,,,0.00,VWS V14.01,2013-02-20 21:59:00,
2013-02-20 17:01:00,27.3,-10.6,29.83,WNW,290,4.0,5.4,18,0.00,,,0.00,VWS V14.01,2013-02-20 22:01:00,
2013-02-20 17:03:00,27.3,-10.6,29.83,WSW,253,3.6,7.6,18,0.00,,,0.00,VWS V14.01,2013-02-20 22:03:00,
2013-02-20 17:05:00,27.3,-10.6,29.83,West,274,6.3,8.1,18,0.00,,,0.00,VWS V14.01,2013-02-20 22:05:00,
2013-02-20 17:06:00,27.3,-10.6,29.83,West,276,14.5,15.4,18,0.00,,,0.00,VWS V14.01,2013-02-20 22:06:00,
2013-02-20 17:10:00,27.3,-10.6,29.83,West,272,5.4,8.7,18,0.00,,,0.00,VWS V14.01,2013-02-20 22:10:00,
2013-02-20 17:11:00,27.3,-10.6,29.83,SW,229,8.3,11.0,18,0.00,,,0.00,VWS V14.01,2013-02-20 22:11:00,
2013-02-20 17:12:00,27.3,-10.6,29.83,West,276,8.1,8.3,18,0.00,,,0.00,VWS V14.01,2013-02-20 22:12:00,
2013-02-20 17:15:00,27.5,-10.4,29.83,WNW,293,7.6,8.7,18,0.00,,,0.00,VWS V14.01,2013-02-20 22:15:00,
2013-02-20 17:16:00,27.5,-10.4,29.83,SW,221,6.3,8.7,18,0.00,,,0.00,VWS V14.01,2013-02-20 22:16:00,
2013-02-20 17:17:00,27.5,-10.4,29.83,West,281,8.3,8.3,18,0.00,,,0.00,VWS V14.01,2013-02-20 22:17:00,
2013-02-20 17:21:00,27.3,-10.6,29.83,West,262,6.3,8.1,18,0.00,,,0.00,VWS V14.01,2013-02-20 22:21:00,
2013-02-20 17:22:00,27.3,-10.6,29.83,West,271,10.1,10.1,18,0.00,,,0.00,VWS V14.01,2013-02-20 22:22:00,
2013-02-20 17:23:00,27.3,-10.6,29.83,SW,234,9.6,10.1,18,0.00,,,0.00,VWS V14.01,2013-02-20 22:23:00,
2013-02-20 17:27:00,27.3,-10.6,29.83,West,264,6.3,10.1,18,0.00,,,0.00,VWS V14.01,2013-02-20 22:27:00,
2013-02-20 17:28:00,27.3,-10.6,29.83,WSW,252,5.8,10.1,18,0.00,,,0.00,VWS V14.01,2013-02-20 22:28:00,
2013-02-20 17:29:00,27.1,-10.7,29.83,West,259,8.3,8.3,18,0.00,,,0.00,VWS V14.01,2013-02-20 22:29:00,
2013-02-20 17:33:00,27.1,-10.7,29.83,West,273,6.3,7.2,18,0.00,,,0.00,VWS V14.01,2013-02-20 22:33:00,
2013-02-20 17:34:00,27.0,-10.9,29.83,WNW,285,8.3,15.4,18,0.00,,,0.00,VWS V14.01,2013-02-20 22:34:00,
2013-02-20 17:37:00,27.0,-10.9,29.83,SW,225,8.1,8.1,18,0.00,,,0.00,VWS V14.01,2013-02-20 22:37:00,
2013-02-20 17:39:00,27.0,-10.9,29.83,SW,215,2.7,5.4,18,0.00,,,0.00,VWS V14.01,2013-02-20 22:39:00,
2013-02-20 17:43:00,26.8,-11.0,29.83,SW,217,5.4,10.5,18,0.00,,,0.00,VWS V14.01,2013-02-20 22:43:00,
2013-02-20 17:44:00,26.6,-10.1,29.83,WNW,295,15.0,15.0,19,0.00,,,0.00,VWS V14.01,2013-02-20 22:44:00,
2013-02-20 17:46:00,26.6,-10.1,29.83,WSW,253,12.3,20.6,19,0.00,,,0.00,VWS V14.01,2013-02-20 22:46:00,
2013-02-20 17:48:00,26.6,-10.1,29.83,SW,234,5.4,5.8,19,0.00,,,0.00,VWS V14.01,2013-02-20 22:48:00,
2013-02-20 17:49:00,26.6,-10.1,29.83,West,271,5.4,6.3,19,0.00,,,0.00,VWS V14.01,2013-02-20 22:49:00,
2013-02-20 17:51:00,26.4,-10.2,29.83,WNW,284,7.6,10.1,19,0.00,,,0.00,VWS V14.01,2013-02-20 22:51:00,
2013-02-20 17:53:00,26.4,-10.2,29.83,West,259,8.7,9.6,19,0.00,,,0.00,VWS V14.01,2013-02-20 22:53:00,
2013-02-20 17:54:00,26.4,-10.2,29.83,West,273,11.9,11.9,19,0.00,,,0.00,VWS V14.01,2013-02-20 22:54:00,
2013-02-20 17:56:00,26.4,-10.2,29.83,WSW,255,7.6,7.6,19,0.00,,,0.00,VWS V14.01,2013-02-20 22:56:00,
2013-02-20 17:59:00,26.4,-10.2,29.83,West,277,0.0,8.1,19,0.00,,,0.00,VWS V14.01,2013-02-20 22:59:00,
2013-02-20 18:04:00,26.4,-10.2,29.83,WNW,298,7.6,10.5,19,0.00,,,0.00,VWS V14.01,2013-02-20 23:04:00,
2013-02-20 18:06:00,26.4,-10.2,29.83,West,265,5.8,5.8,19,0.00,,,0.00,VWS V14.01,2013-02-20 23:06:00,
2013-02-20 18:09:00,26.4,-10.2,29.83,West,262,0.0,3.6,19,0.00,,,0.00,VWS V14.01,2013-02-20 23:09:00,
2013-02-20 18:10:00,26.2,-10.4,29.83,West,264,4.0,8.1,19,0.00,,,0.00,VWS V14.01,2013-02-20 23:10:00,
2013-02-20 18:12:00,26.2,-10.4,29.83,WNW,286,4.0,5.4,19,0.00,,,0.00,VWS V14.01,2013-02-20 23:12:00,
2013-02-20 18:14:00,26.2,-10.4,29.83,West,264,8.1,8.1,19,0.00,,,0.00,VWS V14.01,2013-02-20 23:14:00,
2013-02-20 18:15:00,26.2,-10.4,29.83,WNW,303,7.2,7.2,19,0.00,,,0.00,VWS V14.01,2013-02-20 23:15:00,
2013-02-20 18:17:00,26.2,-10.4,29.83,WSW,252,4.0,7.2,19,0.00,,,0.00,VWS V14.01,2013-02-20 23:17:00,
2013-02-20 18:20:00,26.2,-10.4,29.83,West,280,6.3,6.3,19,0.00,,,0.00,VWS V14.01,2013-02-20 23:20:00,
2013-02-20 18:21:00,26.2,-10.4,29.83,WNW,284,5.8,6.3,19,0.00,,,0.00,VWS V14.01,2013-02-20 23:21:00,
2013-02-20 18:23:00,26.2,-10.4,29.85,WSW,250,10.5,10.5,19,0.00,,,0.00,VWS V14.01,2013-02-20 23:23:00,
2013-02-20 18:25:00,26.2,-10.4,29.85,West,264,3.6,8.1,19,0.00,,,0.00,VWS V14.01,2013-02-20 23:25:00,
2013-02-20 18:26:00,26.2,-10.4,29.85,West,279,3.6,4.0,19,0.00,,,0.00,VWS V14.01,2013-02-20 23:26:00,
2013-02-20 18:28:00,26.2,-10.4,29.85,West,269,3.1,4.0,19,0.00,,,0.00,VWS V14.01,2013-02-20 23:28:00,
2013-02-20 18:30:00,26.2,-10.4,29.85,West,274,4.0,4.0,19,0.00,,,0.00,VWS V14.01,2013-02-20 23:30:00,
2013-02-20 18:31:00,26.2,-10.4,29.85,West,263,4.0,8.1,19,0.00,,,0.00,VWS V14.01,2013-02-20 23:31:00,
2013-02-20 18:32:00,26.1,-10.5,29.85,WNW,287,4.9,4.9,19,0.00,,,0.00,VWS V14.01,2013-02-20 23:32:00,
2013-02-20 18:34:00,26.1,-10.5,29.85,West,273,2.7,4.9,19,0.00,,,0.00,VWS V14.01,2013-02-20 23:34:00,
2013-02-20 18:36:00,26.1,-10.5,29.85,WNW,293,3.6,8.3,19,0.00,,,0.00,VWS V14.01,2013-02-20 23:36:00,
2013-02-20 18:38:00,26.1,-10.5,29.85,West,261,4.0,5.4,19,0.00,,,0.00,VWS V14.01,2013-02-20 23:38:00,
2013-02-20 18:40:00,26.1,-10.5,29.85,NW,314,3.6,4.0,19,0.00,,,0.00,VWS V14.01,2013-02-20 23:40:00,
2013-02-20 18:41:00,26.1,-10.5,29.85,NW,305,4.9,4.9,19,0.00,,,0.00,VWS V14.01,2013-02-20 23:41:00,
2013-02-20 18:42:00,26.1,-10.5,29.85,WNW,292,6.3,6.3,19,0.00,,,0.00,VWS V14.01,2013-02-20 23:42:00,
2013-02-20 18:44:00,26.1,-10.5,29.85,North,8,8.1,8.1,19,0.00,,,0.00,VWS V14.01,2013-02-20 23:44:00,
2013-02-20 18:45:00,26.1,-10.5,29.85,West,275,4.9,4.9,19,0.00,,,0.00,VWS V14.01,2013-02-20 23:45:00,
2013-02-20 18:47:00,26.1,-10.5,29.85,WSW,241,5.8,5.8,19,0.00,,,0.00,VWS V14.01,2013-02-20 23:47:00,
2013-02-20 18:48:00,26.1,-10.5,29.85,NW,306,5.4,9.2,19,0.00,,,0.00,VWS V14.01,2013-02-20 23:48:00,
2013-02-20 18:49:00,26.1,-10.5,29.85,West,279,8.1,9.2,19,0.00,,,0.00,VWS V14.01,2013-02-20 23:49:00,
2013-02-20 18:51:00,26.1,-10.5,29.85,NW,308,3.1,4.0,19,0.00,,,0.00,VWS V14.01,2013-02-20 23:51:00,
2013-02-20 18:52:00,26.1,-10.5,29.85,West,265,6.3,6.3,19,0.00,,,0.00,VWS V14.01,2013-02-20 23:52:00,
2013-02-20 18:54:00,26.1,-10.5,29.85,WSW,254,7.6,7.6,19,0.00,,,0.00,VWS V14.01,2013-02-20 23:54:00,
2013-02-20 18:57:00,26.1,-10.5,29.85,West,266,5.4,5.8,19,0.00,,,0.00,VWS V14.01,2013-02-20 23:57:00,
2013-02-20 18:58:00,26.1,-10.5,29.85,West,265,3.1,5.4,19,0.00,,,0.00,VWS V14.01,2013-02-20 23:58:00,
2013-02-20 18:59:00,26.1,-10.5,29.85,WSW,244,2.7,5.4,19,0.00,,,0.00,VWS V14.01,2013-02-20 23:59:00,
2013-02-20 19:00:00,26.1,-10.5,29.85,WSW,251,8.1,8.1,19,0.00,,,0.00,VWS V14.01,2013-02-21 00:00:00,
2013-02-20 19:03:00,26.1,-10.5,29.85,NW,316,8.3,12.8,19,0.00,,,0.00,VWS V14.01,2013-02-21 00:03:00,
2013-02-20 19:04:00,26.1,-10.5,29.85,SW,218,3.6,8.3,19,0.00,,,0.00,VWS V14.01,2013-02-21 00:04:00,
2013-02-20 19:08:00,26.1,-10.5,29.83,West,277,6.3,6.3,19,0.00,,,0.00,VWS V14.01,2013-02-21 00:08:00,
2013-02-20 19:10:00,26.1,-10.5,29.83,WNW,287,6.3,10.1,19,0.00,,,0.00,VWS V14.01,2013-02-21 00:10:00,
2013-02-20 19:13:00,26.1,-10.5,29.83,SSE,148,5.4,7.6,19,0.00,,,0.00,VWS V14.01,2013-02-21 00:13:00,
2013-02-20 19:16:00,26.1,-10.5,29.83,WSW,254,4.0,7.6,19,0.00,,,0.00,VWS V14.01,2013-02-21 00:16:00,
2013-02-20 19:18:00,26.1,-10.5,29.83,South,178,3.6,5.4,19,0.00,,,0.00,VWS V14.01,2013-02-21 00:18:00,
2013-02-20 19:19:00,26.1,-10.5,29.83,NW,309,3.6,5.4,19,0.00,,,0.00,VWS V14.01,2013-02-21 00:19:00,
2013-02-20 19:21:00,26.1,-10.5,29.83,WSW,255,8.1,10.1,19,0.00,,,0.00,VWS V14.01,2013-02-21 00:21:00,
2013-02-20 19:22:00,26.1,-10.5,29.85,WNW,293,8.1,11.4,19,0.00,,,0.00,VWS V14.01,2013-02-21 00:22:00,
2013-02-20 19:24:00,26.1,-10.5,29.85,WNW,283,0.0,2.2,19,0.00,,,0.00,VWS V14.01,2013-02-21 00:24:00,
2013-02-20 19:25:00,26.1,-10.5,29.85,WNW,300,5.8,8.1,19,0.00,,,0.00,VWS V14.01,2013-02-21 00:25:00,
2013-02-20 19:26:00,26.1,-10.5,29.85,WNW,298,5.4,12.3,19,0.00,,,0.00,VWS V14.01,2013-02-21 00:26:00,
2013-02-20 19:29:00,26.1,-10.5,29.85,West,278,5.8,5.8,19,0.00,,,0.00,VWS V14.01,2013-02-21 00:29:00,
2013-02-20 19:30:00,26.1,-10.5,29.85,NW,304,4.0,4.0,19,0.00,,,0.00,VWS V14.01,2013-02-21 00:30:00,
2013-02-20 19:31:00,25.9,-10.7,29.85,West,277,3.6,4.0,19,0.00,,,0.00,VWS V14.01,2013-02-21 00:31:00,
2013-02-20 19:32:00,25.9,-10.7,29.85,NNW,330,6.3,6.3,19,0.00,,,0.00,VWS V14.01,2013-02-21 00:32:00,
2013-02-20 19:34:00,25.9,-10.7,29.85,WNW,290,7.2,7.2,19,0.00,,,0.00,VWS V14.01,2013-02-21 00:34:00,
2013-02-20 19:37:00,25.9,-10.7,29.85,WNW,298,8.7,8.7,19,0.00,,,0.00,VWS V14.01,2013-02-21 00:37:00,
2013-02-20 19:38:00,25.9,-10.7,29.85,West,280,3.6,8.7,19,0.00,,,0.00,VWS V14.01,2013-02-21 00:38:00,
2013-02-20 19:42:00,25.9,-10.7,29.85,West,270,6.7,7.6,19,0.00,,,0.00,VWS V14.01,2013-02-21 00:42:00,
2013-02-20 19:43:00,25.7,-10.9,29.85,WSW,243,12.3,12.3,19,0.00,,,0.00,VWS V14.01,2013-02-21 00:43:00,
2013-02-20 19:44:00,25.7,-10.9,29.85,West,265,3.1,8.3,19,0.00,,,0.00,VWS V14.01,2013-02-21 00:44:00,
2013-02-20 19:47:00,25.7,-10.9,29.85,WSW,256,7.6,7.6,19,0.00,,,0.00,VWS V14.01,2013-02-21 00:47:00,
2013-02-20 19:48:00,25.7,-10.9,29.85,WSW,253,3.6,7.6,19,0.00,,,0.00,VWS V14.01,2013-02-21 00:48:00,
2013-02-20 19:49:00,25.7,-10.9,29.85,NW,304,8.1,8.3,19,0.00,,,0.00,VWS V14.01,2013-02-21 00:49:00,
2013-02-20 19:52:00,25.7,-10.9,29.85,WSW,255,3.1,3.6,19,0.00,,,0.00,VWS V14.01,2013-02-21 00:52:00,
2013-02-20 19:53:00,25.5,-11.0,29.85,WNW,292,12.3,12.3,19,0.00,,,0.00,VWS V14.01,2013-02-21 00:53:00,
2013-02-20 19:55:00,25.5,-11.0,29.85,WSW,250,7.6,7.6,19,0.00,,,0.00,VWS V14.01,2013-02-21 00:55:00,
2013-02-20 19:56:00,25.5,-11.0,29.85,NW,308,5.8,10.1,19,0.00,,,0.00,VWS V14.01,2013-02-21 00:56:00,
2013-02-20 19:58:00,25.5,-11.0,29.85,SW,233,6.3,6.3,19,0.00,,,0.00,VWS V14.01,2013-02-21 00:58:00,
2013-02-20 19:59:00,25.3,-11.1,29.85,West,280,5.8,10.5,19,0.00,,,0.00,VWS V14.01,2013-02-21 00:59:00,
2013-02-20 20:00:00,25.3,-11.1,29.85,West,263,3.1,8.7,19,0.00,,,0.00,VWS V14.01,2013-02-21 01:00:00,
2013-02-20 20:01:00,25.3,-11.1,29.85,WSW,257,9.6,9.6,19,0.00,,,0.00,VWS V14.01,2013-02-21 01:01:00,
2013-02-20 20:03:00,25.3,-11.1,29.85,West,265,8.3,8.3,19,0.00,,,0.00,VWS V14.01,2013-02-21 01:03:00,
2013-02-20 20:04:00,25.3,-11.1,29.85,WSW,244,6.3,8.3,19,0.00,,,0.00,VWS V14.01,2013-02-21 01:04:00,
2013-02-20 20:05:00,25.3,-11.1,29.85,WSW,241,5.8,11.4,19,0.00,,,0.00,VWS V14.01,2013-02-21 01:05:00,
2013-02-20 20:09:00,25.3,-11.1,29.85,West,271,2.7,10.1,19,0.00,,,0.00,VWS V14.01,2013-02-21 01:09:00,
2013-02-20 20:10:00,25.3,-11.1,29.85,WNW,290,4.0,4.0,19,0.00,,,0.00,VWS V14.01,2013-02-21 01:10:00,
2013-02-20 20:14:00,25.2,-11.3,29.85,WSW,241,5.8,9.2,19,0.00,,,0.00,VWS V14.01,2013-02-21 01:14:00,
2013-02-20 20:15:00,25.2,-11.3,29.85,West,275,10.1,10.1,19,0.00,,,0.00,VWS V14.01,2013-02-21 01:15:00,
2013-02-20 20:17:00,25.2,-11.3,29.85,WNW,287,3.1,10.5,19,0.00,,,0.00,VWS V14.01,2013-02-21 01:17:00,
2013-02-20 20:18:00,25.2,-11.3,29.85,West,263,7.6,7.6,19,0.00,,,0.00,VWS V14.01,2013-02-21 01:18:00,
2013-02-20 20:20:00,25.2,-11.3,29.85,West,265,5.8,6.3,19,0.00,,,0.00,VWS V14.01,2013-02-21 01:20:00,
2013-02-20 20:21:00,25.0,-11.4,29.85,SW,233,3.6,6.3,19,0.00,,,0.00,VWS V14.01,2013-02-21 01:21:00,
2013-02-20 20:22:00,25.0,-11.4,29.85,North,353,4.0,4.9,19,0.00,,,0.00,VWS V14.01,2013-02-21 01:22:00,
2013-02-20 20:25:00,25.0,-11.4,29.85,NW,320,3.1,4.0,19,0.00,,,0.00,VWS V14.01,2013-02-21 01:25:00,
2013-02-20 20:26:00,25.0,-11.4,29.85,West,273,5.4,7.6,19,0.00,,,0.00,VWS V14.01,2013-02-21 01:26:00,
2013-02-20 20:28:00,25.0,-11.4,29.85,WNW,301,5.8,6.3,19,0.00,,,0.00,VWS V14.01,2013-02-21 01:28:00,
2013-02-20 20:30:00,25.0,-11.4,29.85,WSW,253,8.7,8.7,19,0.00,,,0.00,VWS V14.01,2013-02-21 01:30:00,
2013-02-20 20:31:00,25.0,-11.4,29.85,SW,236,3.1,8.7,19,0.00,,,0.00,VWS V14.01,2013-02-21 01:31:00,
2013-02-20 20:34:00,25.0,-11.4,29.85,West,274,4.9,5.8,19,0.00,,,0.00,VWS V14.01,2013-02-21 01:34:00,
2013-02-20 20:36:00,25.0,-11.4,29.85,NW,307,4.0,4.0,19,0.00,,,0.00,VWS V14.01,2013-02-21 01:36:00,
2013-02-20 20:37:00,24.8,-11.6,29.85,WNW,301,4.9,4.9,19,0.00,,,0.00,VWS V14.01,2013-02-21 01:37:00,
2013-02-20 20:40:00,24.8,-11.6,29.85,WNW,284,3.6,4.9,19,0.00,,,0.00,VWS V14.01,2013-02-21 01:40:00,
2013-02-20 20:41:00,24.8,-11.6,29.85,WSW,258,2.7,3.1,19,0.00,,,0.00,VWS V14.01,2013-02-21 01:41:00,
2013-02-20 20:42:00,24.8,-11.6,29.85,West,266,4.0,4.0,19,0.00,,,0.00,VWS V14.01,2013-02-21 01:42:00,
2013-02-20 20:46:00,24.6,-11.8,29.85,West,264,4.0,4.0,19,0.00,,,0.00,VWS V14.01,2013-02-21 01:46:00,
2013-02-20 20:47:00,24.6,-11.8,29.85,WSW,256,3.6,6.7,19,0.00,,,0.00,VWS V14.01,2013-02-21 01:47:00,
2013-02-20 20:51:00,24.4,-11.9,29.85,SW,235,2.7,4.9,19,0.00,,,0.00,VWS V14.01,2013-02-21 01:51:00,
2013-02-20 20:52:00,24.4,-11.9,29.85,West,275,4.0,4.0,19,0.00,,,0.00,VWS V14.01,2013-02-21 01:52:00,
2013-02-20 20:56:00,24.4,-11.9,29.85,WSW,251,3.1,3.6,19,0.00,,,0.00,VWS V14.01,2013-02-21 01:56:00,
2013-02-20 20:57:00,24.4,-11.9,29.85,WSW,255,4.0,6.3,19,0.00,,,0.00,VWS V14.01,2013-02-21 01:57:00,
2013-02-20 20:58:00,24.4,-11.9,29.85,North,0,3.1,3.1,19,0.00,,,0.00,VWS V14.01,2013-02-21 01:58:00,
2013-02-20 20:59:00,24.3,-12.1,29.85,NW,322,4.9,6.3,19,0.00,,,0.00,VWS V14.01,2013-02-21 01:59:00,
2013-02-20 21:02:00,24.3,-12.1,29.85,NW,308,2.7,4.0,19,0.00,,,0.00,VWS V14.01,2013-02-21 02:02:00,
2013-02-20 21:03:00,24.3,-12.1,29.85,West,273,2.7,2.7,19,0.00,,,0.00,VWS V14.01,2013-02-21 02:03:00,
2013-02-20 21:04:00,24.3,-12.1,29.85,NW,305,4.0,4.0,19,0.00,,,0.00,VWS V14.01,2013-02-21 02:04:00,
2013-02-20 21:05:00,24.3,-12.1,29.85,NW,304,5.8,5.8,19,0.00,,,0.00,VWS V14.01,2013-02-21 02:05:00,
2013-02-20 21:08:00,24.3,-12.1,29.85,WSW,241,4.0,4.0,19,0.00,,,0.00,VWS V14.01,2013-02-21 02:08:00,
2013-02-20 21:10:00,24.1,-12.2,29.85,SW,224,3.6,5.8,19,0.00,,,0.00,VWS V14.01,2013-02-21 02:10:00,
2013-02-20 21:13:00,24.1,-12.2,29.85,NW,314,4.9,4.9,19,0.00,,,0.00,VWS V14.01,2013-02-21 02:13:00,
2013-02-20 21:14:00,24.1,-12.2,29.85,WNW,290,5.4,7.6,19,0.00,,,0.00,VWS V14.01,2013-02-21 02:14:00,
2013-02-20 21:18:00,24.1,-12.2,29.85,SW,233,5.8,5.8,19,0.00,,,0.00,VWS V14.01,2013-02-21 02:18:00,
2013-02-20 21:19:00,24.1,-12.2,29.85,WSW,255,3.1,5.8,19,0.00,,,0.00,VWS V14.01,2013-02-21 02:19:00,
2013-02-20 21:20:00,24.1,-12.2,29.85,WNW,288,2.7,4.0,19,0.00,,,0.00,VWS V14.01,2013-02-21 02:20:00,
2013-02-20 21:24:00,23.9,-12.4,29.85,WSW,244,4.0,11.4,19,0.00,,,0.00,VWS V14.01,2013-02-21 02:24:00,
2013-02-20 21:25:00,24.1,-12.2,29.85,WNW,282,2.2,2.2,19,0.00,,,0.00,VWS V14.01,2013-02-21 02:25:00,
2013-02-20 21:26:00,24.1,-12.2,29.85,WNW,290,5.8,5.8,19,0.00,,,0.00,VWS V14.01,2013-02-21 02:26:00,
2013-02-20 21:29:00,23.9,-12.4,29.85,WNW,283,3.6,3.6,19,0.00,,,0.00,VWS V14.01,2013-02-21 02:29:00,
2013-02-20 21:30:00,23.9,-12.4,29.85,WNW,303,5.8,8.1,19,0.00,,,0.00,VWS V14.01,2013-02-21 02:30:00,
2013-02-20 21:31:00,23.9,-12.4,29.85,NW,313,7.6,7.6,19,0.00,,,0.00,VWS V14.01,2013-02-21 02:31:00,
2013-02-20 21:32:00,23.9,-12.4,29.85,West,281,7.6,7.6,19,0.00,,,0.00,VWS V14.01,2013-02-21 02:32:00,
2013-02-20 21:35:00,23.9,-12.4,29.85,WSW,245,5.4,5.8,19,0.00,,,0.00,VWS V14.01,2013-02-21 02:35:00,
2013-02-20 21:37:00,23.9,-12.4,29.88,NW,315,3.1,5.4,19,0.00,,,0.00,VWS V14.01,2013-02-21 02:37:00,
2013-02-20 21:40:00,23.9,-12.4,29.88,WSW,244,2.7,2.7,19,0.00,,,0.00,VWS V14.01,2013-02-21 02:40:00,
2013-02-20 21:42:00,23.9,-12.4,29.88,West,277,3.1,3.1,19,0.00,,,0.00,VWS V14.01,2013-02-21 02:42:00,
2013-02-20 21:44:00,23.9,-12.4,29.88,West,279,5.8,5.8,19,0.00,,,0.00,VWS V14.01,2013-02-21 02:44:00,
2013-02-20 21:45:00,23.7,-12.5,29.88,WNW,287,7.6,7.6,19,0.00,,,0.00,VWS V14.01,2013-02-21 02:45:00,
2013-02-20 21:46:00,23.7,-12.5,29.88,West,272,3.6,7.6,19,0.00,,,0.00,VWS V14.01,2013-02-21 02:46:00,
2013-02-20 21:47:00,23.7,-12.5,29.88,West,263,5.8,6.7,19,0.00,,,0.00,VWS V14.01,2013-02-21 02:47:00,
2013-02-20 21:50:00,23.7,-12.5,29.88,West,263,2.7,2.7,19,0.00,,,0.00,VWS V14.01,2013-02-21 02:50:00,
2013-02-20 21:51:00,23.7,-12.5,29.88,West,272,2.2,4.9,19,0.00,,,0.00,VWS V14.01,2013-02-21 02:51:00,
2013-02-20 21:52:00,23.7,-12.5,29.88,West,272,0.0,2.2,19,0.00,,,0.00,VWS V14.01,2013-02-21 02:52:00,
2013-02-20 21:53:00,23.7,-12.5,29.88,West,279,5.8,5.8,19,0.00,,,0.00,VWS V14.01,2013-02-21 02:53:00,
2013-02-20 21:56:00,23.7,-12.5,29.88,WNW,301,2.2,2.7,19,0.00,,,0.00,VWS V14.01,2013-02-21 02:56:00,
2013-02-20 21:57:00,23.7,-12.5,29.88,West,281,2.7,2.7,19,0.00,,,0.00,VWS V14.01,2013-02-21 02:57:00,
2013-02-20 21:58:00,23.7,-12.5,29.88,West,275,8.1,8.1,19,0.00,,,0.00,VWS V14.01,2013-02-21 02:58:00,
2013-02-20 21:59:00,23.7,-12.5,29.88,WNW,290,4.9,8.1,19,0.00,,,0.00,VWS V14.01,2013-02-21 02:59:00,
2013-02-20 22:02:00,23.7,-12.5,29.88,NW,313,0.0,0.0,19,0.00,,,0.00,VWS V14.01,2013-02-21 03:02:00,
2013-02-20 22:03:00,23.7,-12.5,29.88,WSW,254,4.0,4.0,19,0.00,,,0.00,VWS V14.01,2013-02-21 03:03:00,
2013-02-20 22:05:00,23.7,-12.5,29.88,West,271,4.9,4.9,19,0.00,,,0.00,VWS V14.01,2013-02-21 03:05:00,
2013-02-20 22:08:00,23.7,-12.5,29.88,WSW,238,7.6,7.6,19,0.00,,,0.00,VWS V14.01,2013-02-21 03:08:00,
2013-02-20 22:09:00,23.7,-12.5,29.88,West,276,5.8,8.3,19,0.00,,,0.00,VWS V14.01,2013-02-21 03:09:00,
2013-02-20 22:10:00,23.7,-12.5,29.88,West,278,5.4,6.7,19,0.00,,,0.00,VWS V14.01,2013-02-21 03:10:00,
2013-02-20 22:12:00,23.5,-12.6,29.88,WSW,248,4.0,4.0,19,0.00,,,0.00,VWS V14.01,2013-02-21 03:12:00,
2013-02-20 22:13:00,23.5,-12.6,29.88,WNW,287,2.7,4.0,19,0.00,,,0.00,VWS V14.01,2013-02-21 03:13:00,
2013-02-20 22:15:00,23.5,-12.6,29.88,NNW,329,4.9,4.9,19,0.00,,,0.00,VWS V14.01,2013-02-21 03:15:00,
2013-02-20 22:16:00,23.5,-12.6,29.88,WSW,249,5.4,6.3,19,0.00,,,0.00,VWS V14.01,2013-02-21 03:16:00,
2013-02-20 22:18:00,23.5,-12.6,29.88,SW,234,3.1,4.9,19,0.00,,,0.00,VWS V14.01,2013-02-21 03:18:00,
2013-02-20 22:19:00,23.5,-12.6,29.88,SW,235,4.0,4.0,19,0.00,,,0.00,VWS V14.01,2013-02-21 03:19:00,
2013-02-20 22:21:00,23.5,-12.6,29.88,WNW,286,4.0,4.5,19,0.00,,,0.00,VWS V14.01,2013-02-21 03:21:00,
2013-02-20 22:25:00,23.5,-12.6,29.88,West,275,5.4,5.4,19,0.00,,,0.00,VWS V14.01,2013-02-21 03:25:00,
2013-02-20 22:27:00,23.5,-12.6,29.88,West,259,3.1,3.6,19,0.00,,,0.00,VWS V14.01,2013-02-21 03:27:00,
2013-02-20 22:29:00,23.5,-12.6,29.88,West,268,6.3,6.3,19,0.00,,,0.00,VWS V14.01,2013-02-21 03:29:00,
2013-02-20 22:30:00,23.5,-12.6,29.88,WNW,290,4.5,6.3,19,0.00,,,0.00,VWS V14.01,2013-02-21 03:30:00,
2013-02-20 22:32:00,23.5,-12.6,29.88,West,281,7.6,8.3,19,0.00,,,0.00,VWS V14.01,2013-02-21 03:32:00,
2013-02-20 22:33:00,23.5,-12.6,29.88,WNW,286,5.4,6.3,19,0.00,,,0.00,VWS V14.01,2013-02-21 03:33:00,
2013-02-20 22:35:00,23.5,-12.6,29.88,West,280,5.4,6.3,19,0.00,,,0.00,VWS V14.01,2013-02-21 03:35:00,
2013-02-20 22:36:00,23.5,-12.6,29.88,West,269,8.1,8.1,19,0.00,,,0.00,VWS V14.01,2013-02-21 03:36:00,
2013-02-20 22:38:00,23.5,-12.6,29.88,WNW,288,3.6,6.3,19,0.00,,,0.00,VWS V14.01,2013-02-21 03:38:00,
2013-02-20 22:40:00,23.5,-12.6,29.88,NW,319,4.5,4.9,19,0.00,,,0.00,VWS V14.01,2013-02-21 03:40:00,
2013-02-20 22:41:00,23.5,-12.6,29.88,WNW,299,2.7,5.4,19,0.00,,,0.00,VWS V14.01,2013-02-21 03:41:00,
2013-02-20 22:43:00,23.5,-12.6,29.88,West,261,5.4,5.4,19,0.00,,,0.00,VWS V14.01,2013-02-21 03:43:00,
2013-02-20 22:44:00,23.5,-12.6,29.88,West,277,5.4,6.3,19,0.00,,,0.00,VWS V14.01,2013-02-21 03:44:00,
2013-02-20 22:46:00,23.5,-12.6,29.88,WSW,254,4.0,5.4,19,0.00,,,0.00,VWS V14.01,2013-02-21 03:46:00,
2013-02-20 22:47:00,23.5,-12.6,29.88,WSW,252,5.4,5.4,19,0.00,,,0.00,VWS V14.01,2013-02-21 03:47:00,
2013-02-20 22:48:00,23.5,-12.6,29.88,West,270,8.3,8.3,19,0.00,,,0.00,VWS V14.01,2013-02-21 03:48:00,
2013-02-20 22:51:00,23.4,-12.8,29.88,WSW,248,5.8,6.3,19,0.00,,,0.00,VWS V14.01,2013-02-21 03:51:00,
2013-02-20 22:52:00,23.4,-12.8,29.88,West,268,8.1,8.1,19,0.00,,,0.00,VWS V14.01,2013-02-21 03:52:00,
2013-02-20 22:54:00,23.4,-12.8,29.88,WNW,296,3.1,4.0,19,0.00,,,0.00,VWS V14.01,2013-02-21 03:54:00,
2013-02-20 22:56:00,23.4,-12.8,29.88,West,268,3.1,4.9,19,0.00,,,0.00,VWS V14.01,2013-02-21 03:56:00,
2013-02-20 22:58:00,23.4,-12.8,29.88,NW,320,2.2,5.4,19,0.00,,,0.00,VWS V14.01,2013-02-21 03:58:00,
2013-02-20 23:00:00,23.4,-12.8,29.88,SW,235,5.8,6.3,19,0.00,,,0.00,VWS V14.01,2013-02-21 04:00:00,
2013-02-20 23:01:00,23.4,-12.8,29.88,SE,127,3.6,3.6,19,0.00,,,0.00,VWS V14.01,2013-02-21 04:01:00,
2013-02-20 23:02:00,23.4,-12.8,29.88,WNW,286,0.0,3.6,19,0.00,,,0.00,VWS V14.01,2013-02-21 04:02:00,
2013-02-20 23:04:00,23.4,-12.8,29.88,WNW,282,4.5,4.5,19,0.00,,,0.00,VWS V14.01,2013-02-21 04:04:00,
2013-02-20 23:05:00,23.4,-12.8,29.88,WSW,248,4.0,4.5,19,0.00,,,0.00,VWS V14.01,2013-02-21 04:05:00,
2013-02-20 23:07:00,23.4,-12.8,29.88,South,180,2.7,4.9,19,0.00,,,0.00,VWS V14.01,2013-02-21 04:07:00,
2013-02-20 23:08:00,23.2,-12.9,29.88,WNW,303,2.7,4.0,19,0.00,,,0.00,VWS V14.01,2013-02-21 04:08:00,
2013-02-20 23:11:00,23.2,-12.9,29.88,West,280,4.0,5.8,19,0.00,,,0.00,VWS V14.01,2013-02-21 04:11:00,
2013-02-20 23:12:00,23.2,-12.9,29.88,WNW,282,5.8,5.8,19,0.00,,,0.00,VWS V14.01,2013-02-21 04:12:00,
2013-02-20 23:13:00,23.2,-12.9,29.88,WNW,284,5.8,6.3,19,0.00,,,0.00,VWS V14.01,2013-02-21 04:13:00,
2013-02-20 23:14:00,23.2,-12.9,29.88,WSW,256,3.1,5.4,19,0.00,,,0.00,VWS V14.01,2013-02-21 04:14:00,
2013-02-20 23:17:00,23.0,-12.1,29.88,SW,233,3.1,5.8,20,0.00,,,0.00,VWS V14.01,2013-02-21 04:17:00,
2013-02-20 23:19:00,23.0,-12.1,29.88,SW,221,4.0,5.8,20,0.00,,,0.00,VWS V14.01,2013-02-21 04:19:00,
2013-02-20 23:20:00,23.0,-12.1,29.88,WSW,254,6.3,8.1,20,0.00,,,0.00,VWS V14.01,2013-02-21 04:20:00,
2013-02-20 23:24:00,23.0,-12.1,29.88,WSW,247,5.8,6.3,20,0.00,,,0.00,VWS V14.01,2013-02-21 04:24:00,
2013-02-20 23:25:00,23.0,-12.1,29.88,West,277,5.8,8.3,20,0.00,,,0.00,VWS V14.01,2013-02-21 04:25:00,
2013-02-20 23:26:00,23.0,-12.1,29.88,SW,221,5.4,8.3,20,0.00,,,0.00,VWS V14.01,2013-02-21 04:26:00,
2013-02-20 23:27:00,23.0,-12.1,29.88,WNW,291,4.0,4.0,20,0.00,,,0.00,VWS V14.01,2013-02-21 04:27:00,
2013-02-20 23:29:00,23.0,-12.1,29.88,WSW,246,2.7,2.7,20,0.00,,,0.00,VWS V14.01,2013-02-21 04:29:00,
2013-02-20 23:31:00,23.0,-12.1,29.88,WSW,245,6.3,6.3,20,0.00,,,0.00,VWS V14.01,2013-02-21 04:31:00,
2013-02-20 23:32:00,22.8,-12.2,29.88,WSW,243,5.4,6.3,20,0.00,,,0.00,VWS V14.01,2013-02-21 04:32:00,
2013-02-20 23:37:00,22.8,-12.2,29.88,WSW,257,3.6,8.1,20,0.00,,,0.00,VWS V14.01,2013-02-21 04:37:00,
2013-02-20 23:38:00,22.8,-12.2,29.88,WSW,258,3.1,3.1,20,0.00,,,0.00,VWS V14.01,2013-02-21 04:38:00,
2013-02-20 23:40:00,22.8,-12.2,29.88,WSW,256,4.0,4.0,20,0.00,,,0.00,VWS V14.01,2013-02-21 04:40:00,
2013-02-20 23:43:00,22.8,-12.2,29.88,WSW,253,5.4,8.7,20,0.00,,,0.00,VWS V14.01,2013-02-21 04:43:00,
2013-02-20 23:44:00,22.8,-12.2,29.88,WSW,239,4.0,4.0,20,0.00,,,0.00,VWS V14.01,2013-02-21 04:44:00,
2013-02-20 23:45:00,22.8,-12.2,29.88,West,278,4.0,6.3,20,0.00,,,0.00,VWS V14.01,2013-02-21 04:45:00,
2013-02-20 23:48:00,22.8,-12.2,29.88,West,275,3.6,8.7,20,0.00,,,0.00,VWS V14.01,2013-02-21 04:48:00,
2013-02-20 23:49:00,22.8,-12.2,29.88,WSW,251,5.8,5.8,20,0.00,,,0.00,VWS V14.01,2013-02-21 04:49:00,
2013-02-20 23:50:00,22.8,-12.2,29.88,South,172,4.9,5.8,20,0.00,,,0.00,VWS V14.01,2013-02-21 04:50:00,
2013-02-20 23:55:00,22.8,-12.2,29.88,West,277,4.0,5.4,20,0.00,,,0.00,VWS V14.01,2013-02-21 04:55:00,
2013-02-20 23:56:00,22.8,-12.2,29.88,West,266,3.6,5.4,20,0.00,,,0.00,VWS V14.01,2013-02-21 04:56:00,
2013-02-20 23:57:00,22.8,-12.2,29.88,WNW,294,7.6,7.6,20,0.00,,,0.00,VWS V14.01,2013-02-21 04:57:00,